CW2988 Weather Reports


Display with metric or nautical units.
time (UTC)temp
F
wind
direction
speed
MPH
gust
MPH
rain 1hr
in
rain 24hr
in
rain mn
in
humidity
%
barometer
mb
20180525005946 85 319 10.0 14.0 0.00 0.00 0.00 54 1013.5
20180525005901 85 321 10.0 14.0 0.00 0.00 0.00 54 1013.5
20180525005800 85 315 9.0 14.0 0.00 0.00 0.00 54 1013.5
20180525005650 85 314 10.0 14.0 0.00 0.00 0.00 53 1013.5
20180525005601 85 317 10.0 14.0 0.00 0.00 0.00 53 1013.4
20180525005502 85 314 11.0 14.0 0.00 0.00 0.00 53 1013.5
20180525005404 85 314 11.0 14.0 0.00 0.00 0.00 53 1013.5
20180525005304 85 355 10.0 14.0 0.00 0.00 0.00 53 1013.5
20180525005202 85 315 10.0 14.0 0.00 0.00 0.00 53 1013.5
20180525005053 85 319 10.0 14.0 0.00 0.00 0.00 53 1013.5
20180525004954 85 321 10.0 14.0 0.00 0.00 0.00 52 1013.5
20180525004854 85 320 10.0 14.0 0.00 0.00 0.00 53 1013.5
20180525004755 85 325 9.0 14.0 0.00 0.00 0.00 52 1013.5
20180525004659 86 321 9.0 14.0 0.00 0.00 0.00 52 1013.5
20180525004551 86 317 9.0 14.0 0.00 0.00 0.00 52 1013.5
20180525004451 86 319 9.0 14.0 0.00 0.00 0.00 52 1013.5
20180525004350 86 319 10.0 15.0 0.00 0.00 0.00 52 1013.5
20180525004308 86 347 9.0 15.0 0.00 0.00 0.00 52 1013.5
20180525004203 86 319 9.0 15.0 0.00 0.00 0.00 52 1013.4
20180525004058 86 322 9.0 16.0 0.00 0.00 0.00 52 1013.4
20180525004000 86 321 9.0 18.0 0.00 0.00 0.00 52 1013.5
20180525003858 86 355 10.0 18.0 0.00 0.00 0.00 51 1013.4
20180525003756 86 321 11.0 18.0 0.00 0.00 0.00 51 1013.4
20180525003652 86 338 12.0 18.0 0.00 0.00 0.00 51 1013.4
20180525003604 86 323 12.0 19.0 0.00 0.00 0.00 51 1013.4
20180525003503 87 325 12.0 19.0 0.00 0.00 0.00 51 1013.5
20180525003346 87 355 13.0 19.0 0.00 0.00 0.00 50 1013.4
20180525003305 87 346 14.0 19.0 0.00 0.00 0.00 50 1013.4
20180525003145 87 338 14.0 19.0 0.00 0.00 0.00 50 1013.5
20180525003100 87 320 14.0 19.0 0.00 0.00 0.00 50 1013.4
20180525002958 87 321 14.0 19.0 0.00 0.00 0.00 50 1013.5
20180525002858 87 10 15.0 19.0 0.00 0.00 0.00 49 1013.5
20180525002758 87 348 13.0 19.0 0.00 0.00 0.00 49 1013.5
20180525002658 87 9 10.0 20.0 0.00 0.00 0.00 50 1013.4
20180525002554 87 329 9.0 20.0 0.00 0.00 0.00 50 1013.4
20180525002449 87 321 11.0 20.0 0.00 0.00 0.00 50 1013.4
20180525002349 87 322 13.0 20.0 0.00 0.00 0.00 49 1013.5
20180525002149 87 348 15.0 20.0 0.00 0.00 0.00 49 1013.5
20180525002102 87 5 14.0 20.0 0.00 0.00 0.00 49 1013.5
20180525001946 87 347 14.0 20.0 0.00 0.00 0.00 49 1013.4
20180525001846 87 320 14.0 20.0 0.00 0.00 0.00 49 1013.4
20180525001804 87 338 16.0 20.0 0.00 0.00 0.00 49 1013.4
20180525001702 87 339 17.0 20.0 0.00 0.00 0.00 49 1013.4
20180525001553 87 339 16.0 21.0 0.00 0.00 0.00 49 1013.4
20180525001352 87 331 14.0 21.0 0.00 0.00 0.00 48 1013.5
20180525001249 87 347 14.0 21.0 0.00 0.00 0.00 48 1013.5
20180525001147 87 321 14.0 21.0 0.00 0.00 0.00 48 1013.5
20180525001059 87 345 14.0 21.0 0.00 0.00 0.00 48 1013.5
20180525000959 87 338 16.0 21.0 0.00 0.00 0.00 48 1013.5
20180525000900 88 338 17.0 21.0 0.00 0.00 0.00 47 1013.5
20180525000758 88 340 15.0 21.0 0.00 0.00 0.00 48 1013.5
20180525000658 88 348 13.0 20.0 0.00 0.00 0.00 48 1013.5
20180525000556 88 351 13.0 20.0 0.00 0.00 0.00 48 1013.5
20180525000454 88 342 14.0 21.0 0.00 0.00 0.00 48 1013.5
20180525000350 88 331 14.0 21.0 0.00 0.00 0.00 48 1013.5
20180525000251 88 9 15.0 21.0 0.00 0.00 0.00 48 1013.5
20180525000202 88 355 16.0 21.0 0.00 0.00 0.00 47 1013.5
20180525000055 88 348 16.0 21.0 0.00 0.00 0.00 48 1013.5
20180524235949 88 340 16.0 21.0 0.00 0.00 0.00 47 1013.5
20180524235853 88 334 16.0 21.0 0.00 0.00 0.00 47 1013.5
20180524235753 88 330 17.0 21.0 0.00 0.00 0.00 47 1013.5
20180524235653 88 343 17.0 21.0 0.00 0.00 0.00 47 1013.5
20180524235546 88 12 17.0 22.0 0.00 0.00 0.00 47 1013.5
20180524235447 88 350 15.0 23.0 0.00 0.00 0.00 47 1013.5
20180524235346 88 15 13.0 23.0 0.00 0.00 0.00 47 1013.5
20180524235249 88 329 14.0 23.0 0.00 0.00 0.00 47 1013.5
20180524235204 88 348 14.0 23.0 0.00 0.00 0.00 47 1013.5
20180524235057 88 346 16.0 23.0 0.00 0.00 0.00 46 1013.5
20180524234957 88 347 17.0 23.0 0.00 0.00 0.00 46 1013.4
20180524234748 88 18 20.0 23.0 0.00 0.00 0.00 47 1013.5
20180524234546 88 21 17.0 23.0 0.00 0.00 0.00 46 1013.5
20180524234446 88 24 18.0 23.0 0.00 0.00 0.00 46 1013.5
20180524234404 88 30 18.0 23.0 0.00 0.00 0.00 46 1013.5
20180524234305 88 347 18.0 23.0 0.00 0.00 0.00 46 1013.5
20180524234201 88 334 18.0 23.0 0.00 0.00 0.00 46 1013.5
20180524234054 88 350 17.0 22.0 0.00 0.00 0.00 45 1013.5
20180524233952 88 336 15.0 21.0 0.00 0.00 0.00 45 1013.5
20180524233855 89 321 15.0 21.0 0.00 0.00 0.00 46 1013.5
20180524233754 89 347 16.0 21.0 0.00 0.00 0.00 45 1013.5
20180524233653 89 347 15.0 22.0 0.00 0.00 0.00 45 1013.5
20180524233548 89 317 16.0 22.0 0.00 0.00 0.00 45 1013.5
20180524233446 89 295 15.0 22.0 0.00 0.00 0.00 46 1013.5
20180524233400 89 314 15.0 22.0 0.00 0.00 0.00 46 1013.6
20180524233258 89 327 15.0 22.0 0.00 0.00 0.00 46 1013.5
20180524233202 89 360 14.0 22.0 0.00 0.00 0.00 46 1013.5
20180524233057 89 360 16.0 22.0 0.00 0.00 0.00 46 1013.5
20180524232956 89 9 15.0 22.0 0.00 0.00 0.00 46 1013.5
20180524232855 89 346 16.0 23.0 0.00 0.00 0.00 47 1013.5
20180524232747 89 321 16.0 23.0 0.00 0.00 0.00 46 1013.6
20180524232702 89 321 16.0 23.0 0.00 0.00 0.00 46 1013.6
20180524232555 89 313 15.0 26.0 0.00 0.00 0.00 46 1013.6
20180524232459 89 312 15.0 26.0 0.00 0.00 0.00 46 1013.7
20180524232400 89 312 16.0 26.0 0.00 0.00 0.00 46 1013.6
20180524232300 89 306 18.0 26.0 0.00 0.00 0.00 45 1013.7
20180524232050 89 321 16.0 26.0 0.00 0.00 0.00 46 1013.8
20180524231951 89 335 18.0 26.0 0.00 0.00 0.00 46 1013.7
20180524231850 89 316 17.0 26.0 0.00 0.00 0.00 47 1013.7
20180524231751 89 344 17.0 26.0 0.00 0.00 0.00 46 1013.8
20180524231650 89 322 16.0 21.0 0.00 0.00 0.00 45 1013.8
20180524231545 89 337 15.0 21.0 0.00 0.00 0.00 47 1013.8
20180524231446 89 321 15.0 21.0 0.00 0.00 0.00 46 1013.8
20180524231345 89 313 16.0 20.0 0.00 0.00 0.00 46 1013.8
20180524231246 89 327 16.0 22.0 0.00 0.00 0.00 45 1013.8
20180524231151 88 314 16.0 22.0 0.00 0.00 0.00 46 1013.8
20180524231100 88 325 16.0 22.0 0.00 0.00 0.00 46 1013.8
20180524230959 88 315 15.0 22.0 0.00 0.00 0.00 47 1013.8
20180524230857 88 317 15.0 22.0 0.00 0.00 0.00 47 1013.8
20180524230757 88 317 15.0 22.0 0.00 0.00 0.00 47 1013.8
20180524230652 88 319 17.0 22.0 0.00 0.00 0.00 47 1013.8
20180524230608 88 311 17.0 24.0 0.00 0.00 0.00 46 1013.8
20180524230448 88 313 17.0 24.0 0.00 0.00 0.00 46 1013.8
20180524230347 88 349 17.0 24.0 0.00 0.00 0.00 46 1013.8
20180524230246 89 344 18.0 24.0 0.00 0.00 0.00 45 1013.8
20180524230204 89 339 17.0 24.0 0.00 0.00 0.00 45 1013.9
20180524230058 89 331 16.0 24.0 0.00 0.00 0.00 45 1013.8
20180524225952 89 13 16.0 24.0 0.00 0.00 0.00 45 1013.8
20180524225851 89 360 19.0 24.0 0.00 0.00 0.00 45 1013.8
20180524225751 89 13 20.0 24.0 0.00 0.00 0.00 44 1013.9
20180524225707 89 13 19.0 24.0 0.00 0.00 0.00 44 1013.9
20180524225558 89 9 17.0 22.0 0.00 0.00 0.00 44 1013.9
20180524225456 89 351 16.0 21.0 0.00 0.00 0.00 45 1013.9
20180524225357 89 321 15.0 21.0 0.00 0.00 0.00 45 1013.9
20180524225256 89 320 15.0 21.0 0.00 0.00 0.00 45 1013.9
20180524225156 89 320 16.0 21.0 0.00 0.00 0.00 45 1013.9
20180524225054 89 315 16.0 21.0 0.00 0.00 0.00 45 1013.9
20180524224953 89 294 16.0 21.0 0.00 0.00 0.00 46 1013.9
20180524224853 89 344 16.0 21.0 0.00 0.00 0.00 46 1013.9
20180524224750 89 311 16.0 21.0 0.00 0.00 0.00 45 1013.9
20180524224650 89 307 15.0 21.0 0.00 0.00 0.00 46 1013.9
20180524224603 89 306 15.0 24.0 0.00 0.00 0.00 46 1013.9
20180524224503 89 321 14.0 24.0 0.00 0.00 0.00 46 1013.9
20180524224346 89 323 14.0 24.0 0.00 0.00 0.00 46 1013.9
20180524224246 89 327 14.0 24.0 0.00 0.00 0.00 45 1013.9
20180524224145 89 323 15.0 25.0 0.00 0.00 0.00 45 1013.9
20180524224058 89 348 16.0 25.0 0.00 0.00 0.00 45 1014.0
20180524223957 89 325 17.0 25.0 0.00 0.00 0.00 45 1014.0
20180524223857 89 355 19.0 25.0 0.00 0.00 0.00 45 1013.9
20180524223753 89 11 19.0 25.0 0.00 0.00 0.00 45 1013.9
20180524223658 89 16 18.0 25.0 0.00 0.00 0.00 45 1014.0
20180524223554 89 324 17.0 25.0 0.00 0.00 0.00 46 1014.0
20180524223450 89 350 18.0 25.0 0.00 0.00 0.00 45 1014.0
20180524223351 89 13 19.0 25.0 0.00 0.00 0.00 45 1014.0
20180524223305 89 344 19.0 24.0 0.00 0.00 0.00 45 1014.0
20180524223057 89 319 16.0 21.0 0.00 0.00 0.00 45 1014.0
20180524223000 89 334 15.0 21.0 0.00 0.00 0.00 45 1014.1
20180524222857 89 348 15.0 22.0 0.00 0.00 0.00 45 1014.0
20180524222751 89 318 15.0 22.0 0.00 0.00 0.00 45 1014.1
20180524222650 89 315 15.0 22.0 0.00 0.00 0.00 45 1014.1
20180524222558 89 300 14.0 22.0 0.00 0.00 0.00 45 1014.0
20180524222457 89 306 14.0 22.0 0.00 0.00 0.00 45 1014.0
20180524222358 89 314 15.0 22.0 0.00 0.00 0.00 45 1014.1
20180524222259 89 338 17.0 22.0 0.00 0.00 0.00 45 1014.0
20180524222157 89 336 19.0 22.0 0.00 0.00 0.00 45 1014.1
20180524222051 89 336 19.0 22.0 0.00 0.00 0.00 45 1014.2
20180524222007 89 298 18.0 22.0 0.00 0.00 0.00 46 1014.2
20180524221902 89 317 16.0 21.0 0.00 0.00 0.00 45 1014.2
20180524221802 89 321 15.0 20.0 0.00 0.00 0.00 46 1014.2
20180524221658 89 298 13.0 19.0 0.00 0.00 0.00 45 1014.2
20180524221557 89 319 12.0 21.0 0.00 0.00 0.00 45 1014.2
20180524221453 89 316 12.0 21.0 0.00 0.00 0.00 45 1014.2
20180524221350 89 325 12.0 21.0 0.00 0.00 0.00 45 1014.2
20180524221249 89 319 14.0 22.0 0.00 0.00 0.00 45 1014.2
20180524221204 89 319 15.0 25.0 0.00 0.00 0.00 45 1014.3
20180524221059 89 325 16.0 25.0 0.00 0.00 0.00 45 1014.3
20180524220956 89 317 16.0 25.0 0.00 0.00 0.00 45 1014.3
20180524220859 89 314 16.0 25.0 0.00 0.00 0.00 45 1014.2
20180524220756 89 317 16.0 25.0 0.00 0.00 0.00 44 1014.3
20180524220656 89 304 17.0 25.0 0.00 0.00 0.00 45 1014.2
20180524220549 89 315 18.0 25.0 0.00 0.00 0.00 45 1014.2
20180524220348 89 325 14.0 24.0 0.00 0.00 0.00 46 1014.3
20180524220250 89 332 15.0 24.0 0.00 0.00 0.00 46 1014.3
20180524220151 89 350 16.0 24.0 0.00 0.00 0.00 46 1014.3
20180524220045 89 350 19.0 24.0 0.00 0.00 0.00 46 1014.3
20180524215946 89 325 18.0 24.0 0.00 0.00 0.00 46 1014.4
20180524215752 89 330 14.0 22.0 0.00 0.00 0.00 45 1014.4
20180524215651 89 304 14.0 22.0 0.00 0.00 0.00 46 1014.4
20180524215549 89 317 14.0 22.0 0.00 0.00 0.00 46 1014.5
20180524215450 89 319 15.0 23.0 0.00 0.00 0.00 46 1014.5
20180524215349 89 320 18.0 23.0 0.00 0.00 0.00 46 1014.4
20180524215249 89 321 19.0 23.0 0.00 0.00 0.00 45 1014.5
20180524215150 89 320 18.0 23.0 0.00 0.00 0.00 45 1014.5
20180524215045 89 332 17.0 23.0 0.00 0.00 0.00 44 1014.6
20180524214946 89 316 17.0 23.0 0.00 0.00 0.00 45 1014.6
20180524214846 89 333 18.0 23.0 0.00 0.00 0.00 44 1014.5
20180524214807 89 325 18.0 23.0 0.00 0.00 0.00 44 1014.6
20180524214700 89 351 17.0 23.0 0.00 0.00 0.00 44 1014.6
20180524214554 89 321 15.0 21.0 0.00 0.00 0.00 45 1014.5
20180524214454 89 321 15.0 23.0 0.00 0.00 0.00 45 1014.6
20180524214354 89 350 17.0 24.0 0.00 0.00 0.00 45 1014.6
20180524214158 89 327 15.0 26.0 0.00 0.00 0.00 46 1014.6
20180524214052 89 10 14.0 26.0 0.00 0.00 0.00 45 1014.6
20180524213848 89 349 17.0 26.0 0.00 0.00 0.00 44 1014.7
20180524213747 89 346 19.0 26.0 0.00 0.00 0.00 45 1014.7
20180524213648 89 338 21.0 26.0 0.00 0.00 0.00 44 1014.7
20180524213459 89 319 19.0 26.0 0.00 0.00 0.00 44 1014.7
20180524213357 89 318 17.0 26.0 0.00 0.00 0.00 45 1014.7
20180524213252 88 309 15.0 25.0 0.00 0.00 0.00 45 1014.7
20180524213151 88 344 15.0 25.0 0.00 0.00 0.00 45 1014.8
20180524213045 89 11 16.0 25.0 0.00 0.00 0.00 44 1014.8
20180524213006 89 345 19.0 25.0 0.00 0.00 0.00 44 1014.8
20180524212858 89 330 18.0 25.0 0.00 0.00 0.00 43 1014.8
20180524212801 89 346 18.0 25.0 0.00 0.00 0.00 43 1014.8
20180524212659 89 351 16.0 21.0 0.00 0.00 0.00 43 1014.8
20180524212552 89 332 14.0 19.0 0.00 0.00 0.00 46 1014.8
20180524212450 89 328 13.0 19.0 0.00 0.00 0.00 46 1014.8
20180524212347 89 313 12.0 19.0 0.00 0.00 0.00 46 1014.8
20180524212304 89 313 12.0 19.0 0.00 0.00 0.00 46 1014.9
20180524212148 89 296 13.0 19.0 0.00 0.00 0.00 46 1014.8
20180524212058 89 312 13.0 19.0 0.00 0.00 0.00 46 1014.9
20180524211958 89 296 13.0 19.0 0.00 0.00 0.00 46 1014.9
20180524211859 89 290 13.0 19.0 0.00 0.00 0.00 46 1014.9
20180524211754 89 295 13.0 19.0 0.00 0.00 0.00 46 1015.0
20180524211653 89 290 14.0 19.0 0.00 0.00 0.00 46 1014.9
20180524211604 89 286 13.0 17.0 0.00 0.00 0.00 47 1015.0
20180524211459 89 321 14.0 17.0 0.00 0.00 0.00 46 1015.0
20180524211401 89 326 13.0 17.0 0.00 0.00 0.00 46 1015.0
20180524211305 89 323 13.0 17.0 0.00 0.00 0.00 47 1015.0
20180524211159 89 305 12.0 21.0 0.00 0.00 0.00 47 1015.0
20180524211054 89 326 13.0 22.0 0.00 0.00 0.00 47 1015.1
20180524210948 89 313 13.0 22.0 0.00 0.00 0.00 46 1015.1
20180524210848 89 313 13.0 22.0 0.00 0.00 0.00 47 1015.1
20180524210752 88 316 12.0 22.0 0.00 0.00 0.00 46 1015.2
20180524210652 88 311 13.0 22.0 0.00 0.00 0.00 45 1015.2
20180524210546 88 310 16.0 22.0 0.00 0.00 0.00 45 1015.2
20180524210304 88 341 17.0 23.0 0.00 0.00 0.00 45 1015.2
20180524210204 88 319 16.0 23.0 0.00 0.00 0.00 45 1015.2
20180524210053 88 320 15.0 23.0 0.00 0.00 0.00 44 1015.2
20180524205949 88 328 15.0 23.0 0.00 0.00 0.00 44 1015.2
20180524205849 88 313 16.0 23.0 0.00 0.00 0.00 44 1015.2
20180524205748 88 342 17.0 24.0 0.00 0.00 0.00 45 1015.2
20180524205708 88 327 18.0 24.0 0.00 0.00 0.00 45 1015.3
20180524205557 88 315 18.0 24.0 0.00 0.00 0.00 45 1015.3
20180524205455 88 318 16.0 24.0 0.00 0.00 0.00 45 1015.2
20180524205358 88 333 14.0 24.0 0.00 0.00 0.00 45 1015.3
20180524205158 88 285 16.0 24.0 0.00 0.00 0.00 46 1015.3
20180524205050 88 306 16.0 24.0 0.00 0.00 0.00 46 1015.3
20180524204950 88 302 15.0 23.0 0.00 0.00 0.00 45 1015.3
20180524204846 88 309 15.0 23.0 0.00 0.00 0.00 46 1015.3
20180524204805 88 302 16.0 23.0 0.00 0.00 0.00 45 1015.4
20180524204703 88 319 17.0 23.0 0.00 0.00 0.00 45 1015.4
20180524204556 88 314 18.0 23.0 0.00 0.00 0.00 44 1015.4
20180524204455 88 11 17.0 21.0 0.00 0.00 0.00 47 1015.4
20180524204355 88 350 17.0 21.0 0.00 0.00 0.00 47 1015.4
20180524204255 88 339 16.0 22.0 0.00 0.00 0.00 46 1015.3
20180524204155 88 11 16.0 22.0 0.00 0.00 0.00 46 1015.4
20180524204050 88 319 14.0 22.0 0.00 0.00 0.00 46 1015.4
20180524203954 87 332 13.0 22.0 0.00 0.00 0.00 46 1015.4
20180524203853 87 318 13.0 22.0 0.00 0.00 0.00 46 1015.4
20180524203753 87 300 14.0 22.0 0.00 0.00 0.00 46 1015.4
20180524203653 88 305 13.0 22.0 0.00 0.00 0.00 46 1015.4
20180524203547 88 302 14.0 22.0 0.00 0.00 0.00 46 1015.5
20180524203447 88 310 15.0 23.0 0.00 0.00 0.00 47 1015.5
20180524203350 88 346 15.0 23.0 0.00 0.00 0.00 46 1015.5
20180524203250 88 317 15.0 23.0 0.00 0.00 0.00 45 1015.6
20180524203151 88 312 17.0 23.0 0.00 0.00 0.00 45 1015.6
20180524203104 88 305 17.0 23.0 0.00 0.00 0.00 45 1015.6
20180524203000 88 306 15.0 27.0 0.00 0.00 0.00 44 1015.6
20180524202859 88 310 14.0 27.0 0.00 0.00 0.00 46 1015.6
20180524202757 88 329 16.0 27.0 0.00 0.00 0.00 45 1015.6
20180524202700 88 13 18.0 27.0 0.00 0.00 0.00 45 1015.6
20180524202554 88 350 17.0 27.0 0.00 0.00 0.00 46 1015.6
20180524202454 88 11 16.0 27.0 0.00 0.00 0.00 45 1015.6
20180524202353 88 345 17.0 27.0 0.00 0.00 0.00 46 1015.6
20180524202252 88 346 19.0 27.0 0.00 0.00 0.00 44 1015.6
20180524202153 88 351 19.0 27.0 0.00 0.00 0.00 44 1015.7
20180524202102 88 329 18.0 23.0 0.00 0.00 0.00 44 1015.6
20180524201946 88 12 18.0 23.0 0.00 0.00 0.00 44 1015.6
20180524201846 88 333 15.0 22.0 0.00 0.00 0.00 45 1015.7
20180524201746 88 331 15.0 22.0 0.00 0.00 0.00 46 1015.7
20180524201645 88 327 16.0 22.0 0.00 0.00 0.00 47 1015.6
20180524201557 88 318 17.0 22.0 0.00 0.00 0.00 47 1015.7
20180524201457 87 332 15.0 22.0 0.00 0.00 0.00 47 1015.8
20180524201356 87 319 13.0 23.0 0.00 0.00 0.00 47 1015.7
20180524201300 87 329 14.0 23.0 0.00 0.00 0.00 47 1015.8
20180524201200 87 330 16.0 23.0 0.00 0.00 0.00 47 1015.8
20180524201053 87 351 17.0 23.0 0.00 0.00 0.00 47 1015.8
20180524200951 87 346 15.0 23.0 0.00 0.00 0.00 47 1015.8
20180524200849 87 326 13.0 23.0 0.00 0.00 0.00 48 1015.8
20180524200749 87 306 15.0 23.0 0.00 0.00 0.00 48 1015.8
20180524200652 87 328 17.0 23.0 0.00 0.00 0.00 48 1015.9
20180524200547 87 314 16.0 23.0 0.00 0.00 0.00 48 1015.9
20180524200448 87 321 15.0 23.0 0.00 0.00 0.00 48 1015.9
20180524200346 87 15 15.0 20.0 0.00 0.00 0.00 48 1015.9
20180524200300 87 19 14.0 20.0 0.00 0.00 0.00 48 1015.9
20180524200158 87 350 14.0 20.0 0.00 0.00 0.00 47 1016.0
20180524200050 87 342 16.0 20.0 0.00 0.00 0.00 47 1016.0
20180524195953 87 339 17.0 20.0 0.00 0.00 0.00 47 1016.0
20180524195853 87 9 16.0 24.0 0.00 0.00 0.00 48 1016.0
20180524195753 87 5 14.0 24.0 0.00 0.00 0.00 48 1016.1
20180524195654 87 309 13.0 24.0 0.00 0.00 0.00 49 1016.0
20180524195549 87 315 14.0 24.0 0.00 0.00 0.00 49 1016.0
20180524195504 87 323 15.0 24.0 0.00 0.00 0.00 48 1016.0
20180524195401 88 350 15.0 24.0 0.00 0.00 0.00 48 1016.1
20180524195305 88 346 15.0 24.0 0.00 0.00 0.00 48 1016.0
20180524195058 88 360 15.0 22.0 0.00 0.00 0.00 48 1016.1
20180524194957 87 316 14.0 21.0 0.00 0.00 0.00 48 1016.1
20180524194856 87 288 13.0 21.0 0.00 0.00 0.00 49 1016.1
20180524194816 87 324 12.0 21.0 0.00 0.00 0.00 49 1016.1
20180524194658 87 13 11.0 21.0 0.00 0.00 0.00 48 1016.1
20180524194610 87 335 14.0 21.0 0.00 0.00 0.00 49 1016.1
20180524194452 87 330 16.0 21.0 0.00 0.00 0.00 49 1016.2
20180524194248 87 315 14.0 21.0 0.00 0.00 0.00 49 1016.2
20180524194148 87 318 12.0 21.0 0.00 0.00 0.00 50 1016.2
20180524194101 87 292 12.0 22.0 0.00 0.00 0.00 50 1016.2
20180524193957 87 323 13.0 22.0 0.00 0.00 0.00 48 1016.2
20180524193858 87 328 15.0 22.0 0.00 0.00 0.00 48 1016.2
20180524193752 87 317 14.0 22.0 0.00 0.00 0.00 48 1016.2
20180524193649 87 331 14.0 22.0 0.00 0.00 0.00 48 1016.2
20180524193602 87 350 15.0 22.0 0.00 0.00 0.00 48 1016.2
20180524193501 87 360 16.0 22.0 0.00 0.00 0.00 46 1016.2
20180524193400 87 5 17.0 22.0 0.00 0.00 0.00 49 1016.3
20180524193300 87 305 16.0 22.0 0.00 0.00 0.00 50 1016.3
20180524193200 87 287 14.0 21.0 0.00 0.00 0.00 50 1016.3
20180524193056 87 302 13.0 21.0 0.00 0.00 0.00 50 1016.3
20180524192955 87 303 13.0 21.0 0.00 0.00 0.00 50 1016.3
20180524192854 87 312 12.0 21.0 0.00 0.00 0.00 50 1016.2
20180524192756 87 302 13.0 21.0 0.00 0.00 0.00 49 1016.3
20180524192654 87 313 14.0 21.0 0.00 0.00 0.00 50 1016.3
20180524192547 87 310 14.0 21.0 0.00 0.00 0.00 50 1016.3
20180524192448 87 303 13.0 20.0 0.00 0.00 0.00 51 1016.3
20180524192351 87 15 13.0 20.0 0.00 0.00 0.00 50 1016.3
20180524192250 87 15 13.0 20.0 0.00 0.00 0.00 49 1016.3
20180524192149 87 333 13.0 20.0 0.00 0.00 0.00 48 1016.4
20180524192058 87 317 15.0 20.0 0.00 0.00 0.00 48 1016.4
20180524191958 88 347 15.0 20.0 0.00 0.00 0.00 47 1016.4
20180524191855 88 320 13.0 20.0 0.00 0.00 0.00 49 1016.4
20180524191755 87 16 11.0 21.0 0.00 0.00 0.00 48 1016.4
20180524191658 87 329 12.0 21.0 0.00 0.00 0.00 49 1016.4
20180524191552 87 310 12.0 21.0 0.00 0.00 0.00 50 1016.4
20180524191346 87 334 13.0 21.0 0.00 0.00 0.00 50 1016.4
20180524191247 87 338 14.0 21.0 0.00 0.00 0.00 50 1016.4
20180524191147 87 346 17.0 21.0 0.00 0.00 0.00 47 1016.4
20180524191045 87 344 17.0 21.0 0.00 0.00 0.00 46 1016.5
20180524191004 87 355 16.0 21.0 0.00 0.00 0.00 49 1016.5
20180524190904 87 18 14.0 21.0 0.00 0.00 0.00 49 1016.5
20180524190804 87 329 13.0 21.0 0.00 0.00 0.00 49 1016.5
20180524190705 87 315 12.0 21.0 0.00 0.00 0.00 51 1016.5
20180524190555 87 350 11.0 21.0 0.00 0.00 0.00 50 1016.5
20180524190452 87 302 12.0 21.0 0.00 0.00 0.00 51 1016.5
20180524190354 87 300 15.0 21.0 0.00 0.00 0.00 51 1016.5
20180524190256 87 294 17.0 21.0 0.00 0.00 0.00 50 1016.6
20180524190211 87 337 16.0 21.0 0.00 0.00 0.00 51 1016.6
20180524190104 87 298 13.0 21.0 0.00 0.00 0.00 51 1016.6
20180524185959 87 313 11.0 19.0 0.00 0.00 0.00 52 1016.7
20180524185858 86 311 10.0 19.0 0.00 0.00 0.00 53 1016.6
20180524185758 86 331 12.0 19.0 0.00 0.00 0.00 53 1016.7
20180524185702 86 321 13.0 19.0 0.00 0.00 0.00 52 1016.7
20180524185551 86 331 15.0 19.0 0.00 0.00 0.00 52 1016.7
20180524185350 86 317 13.0 21.0 0.00 0.00 0.00 52 1016.7
20180524185250 86 325 12.0 21.0 0.00 0.00 0.00 52 1016.7
20180524185149 86 316 12.0 21.0 0.00 0.00 0.00 52 1016.7
20180524185103 86 320 13.0 21.0 0.00 0.00 0.00 51 1016.7
20180524184945 86 329 13.0 21.0 0.00 0.00 0.00 51 1016.7
20180524184847 86 301 14.0 21.0 0.00 0.00 0.00 53 1016.7
20180524184745 86 321 14.0 21.0 0.00 0.00 0.00 52 1016.7
20180524184645 86 346 13.0 23.0 0.00 0.00 0.00 53 1016.7
20180524184559 86 12 12.0 23.0 0.00 0.00 0.00 51 1016.8
20180524184458 86 337 12.0 23.0 0.00 0.00 0.00 51 1016.8
20180524184357 86 313 13.0 23.0 0.00 0.00 0.00 52 1016.8
20180524184303 86 336 13.0 23.0 0.00 0.00 0.00 52 1016.8
20180524184202 86 315 14.0 23.0 0.00 0.00 0.00 53 1016.9
20180524184055 86 313 16.0 23.0 0.00 0.00 0.00 53 1016.8
20180524183946 86 316 17.0 23.0 0.00 0.00 0.00 53 1016.8
20180524183846 85 336 16.0 23.0 0.00 0.00 0.00 52 1016.9
20180524183745 85 316 14.0 20.0 0.00 0.00 0.00 52 1016.8
20180524183648 86 313 13.0 18.0 0.00 0.00 0.00 52 1016.8
20180524183559 86 312 13.0 18.0 0.00 0.00 0.00 53 1016.9
20180524183459 86 314 13.0 18.0 0.00 0.00 0.00 54 1017.0
20180524183357 86 305 13.0 18.0 0.00 0.00 0.00 53 1016.9
20180524183258 86 338 13.0 19.0 0.00 0.00 0.00 52 1016.9
20180524183157 86 333 14.0 19.0 0.00 0.00 0.00 53 1017.0
20180524183051 86 312 13.0 19.0 0.00 0.00 0.00 54 1017.0
20180524182954 86 306 11.0 19.0 0.00 0.00 0.00 54 1017.0
20180524182852 86 324 12.0 19.0 0.00 0.00 0.00 54 1017.1
20180524182751 86 308 15.0 19.0 0.00 0.00 0.00 53 1017.1
20180524182651 86 313 16.0 19.0 0.00 0.00 0.00 53 1017.1
20180524182604 86 326 14.0 19.0 0.00 0.00 0.00 52 1017.1
20180524182504 86 328 13.0 19.0 0.00 0.00 0.00 54 1017.1
20180524182404 86 323 12.0 19.0 0.00 0.00 0.00 54 1017.1
20180524182247 85 346 11.0 21.0 0.00 0.00 0.00 54 1017.2
20180524182206 85 319 10.0 21.0 0.00 0.00 0.00 54 1017.2
20180524182059 85 355 12.0 21.0 0.00 0.00 0.00 54 1017.2
20180524181959 85 322 13.0 21.0 0.00 0.00 0.00 54 1017.2
20180524181858 85 309 13.0 21.0 0.00 0.00 0.00 53 1017.3
20180524181759 85 315 12.0 21.0 0.00 0.00 0.00 55 1017.3
20180524181657 85 290 12.0 21.0 0.00 0.00 0.00 55 1017.3
20180524181554 85 321 13.0 21.0 0.00 0.00 0.00 55 1017.3
20180524181345 85 303 11.0 18.0 0.00 0.00 0.00 57 1017.3
20180524181301 85 351 11.0 20.0 0.00 0.00 0.00 55 1017.3
20180524181201 85 326 11.0 20.0 0.00 0.00 0.00 55 1017.3
20180524181053 85 345 13.0 20.0 0.00 0.00 0.00 54 1017.4
20180524180952 85 321 13.0 20.0 0.00 0.00 0.00 55 1017.4
20180524180856 85 324 12.0 20.0 0.00 0.00 0.00 55 1017.5
20180524180757 85 299 11.0 20.0 0.00 0.00 0.00 55 1017.4
20180524180649 85 282 13.0 20.0 0.00 0.00 0.00 54 1017.5
20180524180601 85 309 13.0 20.0 0.00 0.00 0.00 55 1017.5
20180524180501 85 317 12.0 20.0 0.00 0.00 0.00 55 1017.5
20180524180357 85 19 12.0 19.0 0.00 0.00 0.00 54 1017.5
20180524180257 85 338 14.0 19.0 0.00 0.00 0.00 54 1017.5
20180524180201 85 349 15.0 19.0 0.00 0.00 0.00 54 1017.5
20180524180054 85 331 13.0 19.0 0.00 0.00 0.00 54 1017.5
20180524175953 85 317 12.0 18.0 0.00 0.00 0.00 54 1017.4
20180524175850 85 18 13.0 18.0 0.00 0.00 0.00 53 1017.4
20180524175751 85 12 13.0 21.0 0.00 0.00 0.00 53 1017.4
20180524175651 85 15 13.0 21.0 0.00 0.00 0.00 53 1017.5
20180524175549 85 331 13.0 21.0 0.00 0.00 0.00 54 1017.4
20180524175447 85 321 16.0 21.0 0.00 0.00 0.00 55 1017.5
20180524175347 85 10 15.0 21.0 0.00 0.00 0.00 54 1017.5
20180524175247 85 317 11.0 21.0 0.00 0.00 0.00 55 1017.5
20180524175148 85 324 11.0 21.0 0.00 0.00 0.00 55 1017.5
20180524175056 85 329 14.0 21.0 0.00 0.00 0.00 55 1017.5
20180524174952 85 323 17.0 21.0 0.00 0.00 0.00 55 1017.5
20180524174856 85 355 17.0 21.0 0.00 0.00 0.00 54 1017.5
20180524174756 85 17 14.0 21.0 0.00 0.00 0.00 55 1017.5
20180524174657 85 338 11.0 19.0 0.00 0.00 0.00 55 1017.5
20180524174550 85 9 11.0 18.0 0.00 0.00 0.00 55 1017.5
20180524174347 85 348 14.0 18.0 0.00 0.00 0.00 57 1017.5
20180524174247 85 355 13.0 18.0 0.00 0.00 0.00 56 1017.5
20180524174149 85 14 14.0 18.0 0.00 0.00 0.00 56 1017.5
20180524174104 85 40 14.0 19.0 0.00 0.00 0.00 56 1017.5
20180524174004 85 22 15.0 19.0 0.00 0.00 0.00 57 1017.5
20180524173902 85 5 13.0 19.0 0.00 0.00 0.00 57 1017.5
20180524173801 85 355 12.0 19.0 0.00 0.00 0.00 58 1017.6
20180524173553 85 19 14.0 19.0 0.00 0.00 0.00 57 1017.5
20180524173455 85 13 13.0 19.0 0.00 0.00 0.00 57 1017.5
20180524173354 84 313 14.0 19.0 0.00 0.00 0.00 56 1017.4
20180524173253 84 12 14.0 19.0 0.00 0.00 0.00 57 1017.5
20180524173154 84 9 13.0 19.0 0.00 0.00 0.00 57 1017.5
20180524173047 85 5 14.0 19.0 0.00 0.00 0.00 56 1017.5
20180524173004 85 11 16.0 19.0 0.00 0.00 0.00 57 1017.5
20180524172900 85 9 14.0 19.0 0.00 0.00 0.00 57 1017.5
20180524172802 85 33 13.0 19.0 0.00 0.00 0.00 56 1017.6
20180524172653 85 333 11.0 18.0 0.00 0.00 0.00 56 1017.5
20180524172547 85 346 11.0 19.0 0.00 0.00 0.00 56 1017.6
20180524172503 85 323 12.0 19.0 0.00 0.00 0.00 56 1017.6
20180524172402 85 336 13.0 20.0 0.00 0.00 0.00 56 1017.6
20180524172258 85 340 13.0 20.0 0.00 0.00 0.00 57 1017.6
20180524172158 85 317 13.0 20.0 0.00 0.00 0.00 57 1017.6
20180524172052 85 315 13.0 20.0 0.00 0.00 0.00 57 1017.6
20180524171948 85 350 13.0 20.0 0.00 0.00 0.00 56 1017.7
20180524171845 85 347 14.0 20.0 0.00 0.00 0.00 56 1017.7
20180524171746 85 321 14.0 20.0 0.00 0.00 0.00 55 1017.7
20180524171700 85 346 15.0 20.0 0.00 0.00 0.00 55 1017.6
20180524171553 85 338 15.0 20.0 0.00 0.00 0.00 56 1017.6
20180524171452 85 5 13.0 20.0 0.00 0.00 0.00 57 1017.7
20180524171356 85 335 11.0 16.0 0.00 0.00 0.00 57 1017.7
20180524171256 85 18 12.0 17.0 0.00 0.00 0.00 56 1017.7
20180524171155 85 346 11.0 17.0 0.00 0.00 0.00 56 1017.7
20180524171045 85 9 10.0 17.0 0.00 0.00 0.00 57 1017.7
20180524170946 85 321 10.0 17.0 0.00 0.00 0.00 57 1017.7
20180524170847 85 340 10.0 21.0 0.00 0.00 0.00 57 1017.8
20180524170748 85 301 11.0 21.0 0.00 0.00 0.00 57 1017.8
20180524170646 85 319 12.0 21.0 0.00 0.00 0.00 57 1017.8
20180524170547 85 315 13.0 21.0 0.00 0.00 0.00 58 1017.8
20180524170447 84 315 12.0 21.0 0.00 0.00 0.00 58 1017.9
20180524170348 84 326 11.0 21.0 0.00 0.00 0.00 59 1017.8
20180524170246 84 335 13.0 21.0 0.00 0.00 0.00 58 1017.8
20180524170203 84 333 14.0 21.0 0.00 0.00 0.00 58 1017.9
20180524170050 84 346 14.0 21.0 0.00 0.00 0.00 58 1017.9
20180524165949 84 14 13.0 18.0 0.00 0.00 0.00 57 1017.9
20180524165848 84 15 12.0 16.0 0.00 0.00 0.00 57 1017.9
20180524165746 84 18 11.0 17.0 0.00 0.00 0.00 58 1017.8
20180524165647 85 32 12.0 17.0 0.00 0.00 0.00 58 1017.9
20180524165557 85 9 12.0 17.0 0.00 0.00 0.00 57 1017.8
20180524165454 85 25 12.0 18.0 0.00 0.00 0.00 56 1017.8
20180524165356 85 9 12.0 18.0 0.00 0.00 0.00 58 1017.8
20180524165255 85 324 11.0 19.0 0.00 0.00 0.00 59 1017.8
20180524165155 84 313 11.0 19.0 0.00 0.00 0.00 60 1017.8
20180524165048 84 15 10.0 19.0 0.00 0.00 0.00 57 1017.9
20180524164948 84 349 9.0 19.0 0.00 0.00 0.00 59 1017.9
20180524164846 84 9 9.0 19.0 0.00 0.00 0.00 59 1017.9
20180524164804 84 300 12.0 19.0 0.00 0.00 0.00 58 1017.9
20180524164647 84 319 15.0 19.0 0.00 0.00 0.00 57 1017.8
20180524164500 84 330 11.0 19.0 0.00 0.00 0.00 58 1017.8
20180524164357 84 344 10.0 18.0 0.00 0.00 0.00 59 1017.8
20180524164256 84 313 11.0 18.0 0.00 0.00 0.00 59 1017.9
20180524164156 84 302 11.0 18.0 0.00 0.00 0.00 59 1017.9
20180524164050 84 26 11.0 18.0 0.00 0.00 0.00 58 1017.8
20180524163955 84 12 12.0 18.0 0.00 0.00 0.00 58 1017.9
20180524163855 84 323 14.0 18.0 0.00 0.00 0.00 58 1017.9
20180524163750 84 355 13.0 18.0 0.00 0.00 0.00 59 1017.9
20180524163649 84 321 11.0 18.0 0.00 0.00 0.00 59 1017.9
20180524163603 84 342 11.0 19.0 0.00 0.00 0.00 59 1018.0
20180524163459 83 328 11.0 19.0 0.00 0.00 0.00 59 1018.0
20180524163359 83 9 11.0 19.0 0.00 0.00 0.00 59 1018.0
20180524163300 83 329 11.0 19.0 0.00 0.00 0.00 59 1018.0
20180524163159 84 328 13.0 19.0 0.00 0.00 0.00 58 1018.0
20180524163053 84 343 13.0 19.0 0.00 0.00 0.00 58 1018.0
20180524162951 84 331 13.0 19.0 0.00 0.00 0.00 58 1018.0
20180524162847 83 9 14.0 19.0 0.00 0.00 0.00 60 1018.0
20180524162747 83 334 15.0 19.0 0.00 0.00 0.00 59 1018.0
20180524162646 83 348 14.0 19.0 0.00 0.00 0.00 59 1018.0
20180524162545 83 19 12.0 18.0 0.00 0.00 0.00 60 1018.0
20180524162457 83 346 12.0 18.0 0.00 0.00 0.00 59 1018.0
20180524162357 83 329 12.0 18.0 0.00 0.00 0.00 60 1018.0
20180524162256 83 320 13.0 18.0 0.00 0.00 0.00 60 1018.0
20180524162151 83 11 13.0 18.0 0.00 0.00 0.00 59 1018.0
20180524162045 83 316 13.0 18.0 0.00 0.00 0.00 59 1018.1
20180524162001 83 15 13.0 18.0 0.00 0.00 0.00 59 1018.1
20180524161905 83 26 14.0 18.0 0.00 0.00 0.00 59 1018.1
20180524161804 83 12 14.0 18.0 0.00 0.00 0.00 59 1018.1
20180524161701 83 15 12.0 17.0 0.00 0.00 0.00 60 1018.1
20180524161555 83 355 13.0 17.0 0.00 0.00 0.00 61 1018.2
20180524161455 83 350 13.0 17.0 0.00 0.00 0.00 60 1018.2
20180524161354 83 9 12.0 18.0 0.00 0.00 0.00 61 1018.2
20180524161254 83 343 11.0 19.0 0.00 0.00 0.00 60 1018.2
20180524161157 83 318 12.0 19.0 0.00 0.00 0.00 60 1018.2
20180524161049 83 11 13.0 19.0 0.00 0.00 0.00 59 1018.2
20180524160949 83 5 13.0 19.0 0.00 0.00 0.00 60 1018.2
20180524160848 83 327 12.0 19.0 0.00 0.00 0.00 60 1018.2
20180524160749 83 323 11.0 21.0 0.00 0.00 0.00 61 1018.2
20180524160647 83 9 12.0 21.0 0.00 0.00 0.00 60 1018.3
20180524160546 83 348 13.0 21.0 0.00 0.00 0.00 60 1018.3
20180524160445 83 355 12.0 21.0 0.00 0.00 0.00 61 1018.2
20180524160404 83 17 12.0 21.0 0.00 0.00 0.00 61 1018.2
20180524160303 83 326 12.0 21.0 0.00 0.00 0.00 60 1018.2
20180524160201 83 322 14.0 21.0 0.00 0.00 0.00 60 1018.3
20180524160056 83 319 15.0 21.0 0.00 0.00 0.00 61 1018.2
20180524155952 83 338 14.0 21.0 0.00 0.00 0.00 61 1018.2
20180524155854 83 11 13.0 17.0 0.00 0.00 0.00 60 1018.2
20180524155750 83 346 13.0 17.0 0.00 0.00 0.00 60 1018.2
20180524155650 83 319 13.0 18.0 0.00 0.00 0.00 61 1018.2
20180524155558 83 319 13.0 18.0 0.00 0.00 0.00 62 1018.2
20180524155457 83 350 13.0 18.0 0.00 0.00 0.00 62 1018.2
20180524155356 83 348 13.0 18.0 0.00 0.00 0.00 61 1018.1
20180524155255 83 351 13.0 18.0 0.00 0.00 0.00 60 1018.1
20180524155156 83 345 13.0 18.0 0.00 0.00 0.00 61 1018.2
20180524155051 83 331 13.0 18.0 0.00 0.00 0.00 61 1018.2
20180524154950 82 313 13.0 18.0 0.00 0.00 0.00 61 1018.1
20180524154850 82 304 12.0 18.0 0.00 0.00 0.00 61 1018.1
20180524154749 82 326 12.0 18.0 0.00 0.00 0.00 61 1018.1
20180524154649 82 320 13.0 18.0 0.00 0.00 0.00 61 1018.1
20180524154602 82 318 14.0 18.0 0.00 0.00 0.00 61 1018.2
20180524154445 82 325 12.0 18.0 0.00 0.00 0.00 62 1018.2
20180524154404 82 321 13.0 18.0 0.00 0.00 0.00 62 1018.2
20180524154255 82 348 15.0 19.0 0.00 0.00 0.00 61 1018.2
20180524154153 82 321 15.0 19.0 0.00 0.00 0.00 61 1018.2
20180524154102 82 320 14.0 19.0 0.00 0.00 0.00 61 1018.2
20180524154002 82 333 13.0 19.0 0.00 0.00 0.00 61 1018.2
20180524153903 82 314 14.0 19.0 0.00 0.00 0.00 61 1018.2
20180524153800 82 9 14.0 19.0 0.00 0.00 0.00 62 1018.2
20180524153659 82 313 15.0 19.0 0.00 0.00 0.00 62 1018.2
20180524153548 82 340 15.0 19.0 0.00 0.00 0.00 61 1018.2
20180524153444 82 324 15.0 19.0 0.00 0.00 0.00 61 1018.2
20180524153403 82 348 13.0 19.0 0.00 0.00 0.00 61 1018.2
20180524153302 82 336 12.0 19.0 0.00 0.00 0.00 62 1018.2
20180524153201 82 348 13.0 18.0 0.00 0.00 0.00 61 1018.3
20180524153101 82 308 12.0 19.0 0.00 0.00 0.00 60 1018.2
20180524153000 82 319 12.0 19.0 0.00 0.00 0.00 62 1018.2
20180524152859 82 312 12.0 19.0 0.00 0.00 0.00 61 1018.2
20180524152800 82 337 13.0 19.0 0.00 0.00 0.00 62 1018.2
20180524152658 82 325 14.0 19.0 0.00 0.00 0.00 61 1018.2
20180524152553 82 343 15.0 19.0 0.00 0.00 0.00 61 1018.2
20180524152452 82 336 15.0 19.0 0.00 0.00 0.00 62 1018.1
20180524152356 82 334 14.0 19.0 0.00 0.00 0.00 61 1018.2
20180524152258 82 327 14.0 19.0 0.00 0.00 0.00 62 1018.2
20180524152157 82 305 12.0 18.0 0.00 0.00 0.00 61 1018.2
20180524151951 81 316 13.0 18.0 0.00 0.00 0.00 61 1018.3
20180524151847 81 306 14.0 18.0 0.00 0.00 0.00 61 1018.3
20180524151749 81 296 14.0 18.0 0.00 0.00 0.00 61 1018.2
20180524151648 81 9 12.0 18.0 0.00 0.00 0.00 61 1018.3
20180524151601 81 327 12.0 18.0 0.00 0.00 0.00 61 1018.3
20180524151501 81 319 12.0 18.0 0.00 0.00 0.00 61 1018.3
20180524151357 81 340 13.0 18.0 0.00 0.00 0.00 61 1018.3
20180524151254 81 322 14.0 18.0 0.00 0.00 0.00 61 1018.3
20180524151150 81 331 14.0 18.0 0.00 0.00 0.00 61 1018.3
20180524151049 81 320 15.0 21.0 0.00 0.00 0.00 61 1018.3
20180524150848 81 323 15.0 21.0 0.00 0.00 0.00 61 1018.4
20180524150747 81 317 15.0 21.0 0.00 0.00 0.00 61 1018.4
20180524150702 81 298 14.0 21.0 0.00 0.00 0.00 61 1018.4
20180524150555 81 323 14.0 21.0 0.00 0.00 0.00 61 1018.4
20180524150451 81 324 15.0 21.0 0.00 0.00 0.00 61 1018.5
20180524150356 81 332 16.0 21.0 0.00 0.00 0.00 61 1018.5
20180524150254 81 327 15.0 21.0 0.00 0.00 0.00 61 1018.5
20180524150210 80 9 14.0 20.0 0.00 0.00 0.00 61 1018.5
20180524150053 80 319 14.0 20.0 0.00 0.00 0.00 61 1018.5
20180524145946 80 302 15.0 20.0 0.00 0.00 0.00 60 1018.5
20180524145845 80 325 13.0 20.0 0.00 0.00 0.00 60 1018.5
20180524145746 80 327 12.0 20.0 0.00 0.00 0.00 60 1018.5
20180524145650 80 309 12.0 20.0 0.00 0.00 0.00 62 1018.6
20180524145603 80 324 14.0 20.0 0.00 0.00 0.00 61 1018.6
20180524145501 80 326 15.0 20.0 0.00 0.00 0.00 61 1018.5
20180524145358 80 338 15.0 20.0 0.00 0.00 0.00 61 1018.6
20180524145253 80 355 14.0 19.0 0.00 0.00 0.00 62 1018.6
20180524145152 80 346 15.0 19.0 0.00 0.00 0.00 62 1018.7
20180524145047 80 309 16.0 19.0 0.00 0.00 0.00 60 1018.7
20180524144951 80 309 15.0 19.0 0.00 0.00 0.00 61 1018.7
20180524144850 80 334 14.0 19.0 0.00 0.00 0.00 61 1018.7
20180524144750 80 350 14.0 19.0 0.00 0.00 0.00 60 1018.7
20180524144702 79 319 14.0 20.0 0.00 0.00 0.00 61 1018.7
20180524144553 79 327 15.0 20.0 0.00 0.00 0.00 61 1018.7
20180524144455 79 321 15.0 20.0 0.00 0.00 0.00 61 1018.7
20180524144354 79 343 15.0 20.0 0.00 0.00 0.00 61 1018.8
20180524144256 79 313 15.0 20.0 0.00 0.00 0.00 61 1018.8
20180524144151 79 324 15.0 20.0 0.00 0.00 0.00 61 1018.8
20180524144046 79 315 15.0 20.0 0.00 0.00 0.00 60 1018.8
20180524143945 79 332 16.0 20.0 0.00 0.00 0.00 61 1018.8
20180524143845 79 311 15.0 20.0 0.00 0.00 0.00 61 1018.9
20180524143802 79 314 16.0 20.0 0.00 0.00 0.00 60 1018.9
20180524143701 79 336 16.0 20.0 0.00 0.00 0.00 60 1018.8
20180524143600 79 317 15.0 19.0 0.00 0.00 0.00 61 1018.9
20180524143500 79 313 15.0 19.0 0.00 0.00 0.00 61 1018.9
20180524143358 79 339 13.0 18.0 0.00 0.00 0.00 61 1018.8
20180524143258 79 350 13.0 18.0 0.00 0.00 0.00 60 1018.8
20180524143159 79 348 14.0 16.0 0.00 0.00 0.00 60 1018.8
20180524143052 79 324 13.0 16.0 0.00 0.00 0.00 60 1018.8
20180524142951 79 311 12.0 16.0 0.00 0.00 0.00 62 1018.8
20180524142854 79 282 11.0 15.0 0.00 0.00 0.00 61 1018.7
20180524142753 79 315 11.0 15.0 0.00 0.00 0.00 60 1018.8
20180524142653 78 318 11.0 15.0 0.00 0.00 0.00 62 1018.8
20180524142545 78 311 12.0 15.0 0.00 0.00 0.00 60 1018.7
20180524142503 78 321 12.0 15.0 0.00 0.00 0.00 60 1018.7
20180524142404 78 340 12.0 17.0 0.00 0.00 0.00 61 1018.7
20180524142259 78 322 12.0 17.0 0.00 0.00 0.00 60 1018.8
20180524142201 78 332 12.0 17.0 0.00 0.00 0.00 61 1018.8
20180524142055 78 305 12.0 17.0 0.00 0.00 0.00 61 1018.9
20180524141955 78 297 12.0 17.0 0.00 0.00 0.00 61 1018.8
20180524141855 78 304 12.0 17.0 0.00 0.00 0.00 61 1018.9
20180524141755 78 315 13.0 17.0 0.00 0.00 0.00 61 1018.8
20180524141656 78 333 14.0 17.0 0.00 0.00 0.00 61 1018.9
20180524141554 78 325 14.0 17.0 0.00 0.00 0.00 61 1018.9
20180524141455 78 309 13.0 17.0 0.00 0.00 0.00 61 1018.9
20180524141352 77 307 12.0 15.0 0.00 0.00 0.00 62 1018.9
20180524141253 77 305 12.0 15.0 0.00 0.00 0.00 62 1018.8
20180524141153 77 320 12.0 15.0 0.00 0.00 0.00 62 1018.8
20180524141102 77 310 12.0 15.0 0.00 0.00 0.00 62 1018.8
20180524141000 77 327 12.0 15.0 0.00 0.00 0.00 62 1018.8
20180524140903 77 302 11.0 16.0 0.00 0.00 0.00 62 1018.8
20180524140801 77 303 11.0 16.0 0.00 0.00 0.00 62 1018.8
20180524140700 77 296 11.0 16.0 0.00 0.00 0.00 62 1018.8
20180524140555 77 308 12.0 16.0 0.00 0.00 0.00 62 1018.8
20180524140454 77 305 11.0 16.0 0.00 0.00 0.00 62 1018.8
20180524140352 77 304 11.0 16.0 0.00 0.00 0.00 62 1018.8
20180524140250 77 310 12.0 16.0 0.00 0.00 0.00 61 1018.8
20180524140156 77 298 12.0 17.0 0.00 0.00 0.00 62 1018.8
20180524140050 77 340 11.0 17.0 0.00 0.00 0.00 62 1018.8
20180524135946 77 311 9.0 17.0 0.00 0.00 0.00 63 1018.8
20180524135906 76 325 10.0 17.0 0.00 0.00 0.00 64 1018.9
20180524135759 76 306 11.0 17.0 0.00 0.00 0.00 62 1018.9
20180524135658 76 302 11.0 17.0 0.00 0.00 0.00 63 1018.9
20180524135548 76 283 12.0 17.0 0.00 0.00 0.00 63 1018.9
20180524135453 76 318 13.0 17.0 0.00 0.00 0.00 62 1018.9
20180524135352 76 314 13.0 17.0 0.00 0.00 0.00 63 1018.9
20180524135253 76 309 11.0 15.0 0.00 0.00 0.00 63 1019.0
20180524135151 76 306 11.0 14.0 0.00 0.00 0.00 64 1019.0
20180524135104 76 301 11.0 13.0 0.00 0.00 0.00 63 1019.0
20180524135001 76 294 10.0 13.0 0.00 0.00 0.00 63 1019.0
20180524134844 76 297 9.0 14.0 0.00 0.00 0.00 64 1019.0
20180524134802 75 300 9.0 14.0 0.00 0.00 0.00 65 1019.0
20180524134701 75 309 9.0 14.0 0.00 0.00 0.00 65 1019.0
20180524134554 75 301 10.0 14.0 0.00 0.00 0.00 66 1019.0
20180524134454 75 305 10.0 14.0 0.00 0.00 0.00 65 1019.1
20180524134345 75 312 9.0 14.0 0.00 0.00 0.00 66 1019.1
20180524134244 75 322 10.0 14.0 0.00 0.00 0.00 67 1019.1
20180524134146 75 304 10.0 14.0 0.00 0.00 0.00 67 1019.1
20180524134059 75 296 10.0 14.0 0.00 0.00 0.00 66 1019.1
20180524133956 74 301 11.0 14.0 0.00 0.00 0.00 66 1019.1
20180524133853 74 309 10.0 13.0 0.00 0.00 0.00 66 1019.1
20180524133753 74 306 9.0 12.0 0.00 0.00 0.00 67 1019.1
20180524133653 74 292 9.0 12.0 0.00 0.00 0.00 67 1019.0
20180524133546 74 300 10.0 12.0 0.00 0.00 0.00 68 1019.0
20180524133450 74 294 9.0 12.0 0.00 0.00 0.00 68 1019.0
20180524133346 74 297 8.0 12.0 0.00 0.00 0.00 67 1019.0
20180524133246 74 295 8.0 12.0 0.00 0.00 0.00 68 1019.0
20180524133059 74 301 8.0 12.0 0.00 0.00 0.00 69 1019.0
20180524133000 74 289 9.0 12.0 0.00 0.00 0.00 70 1019.0
20180524132859 73 294 8.0 12.0 0.00 0.00 0.00 70 1019.0
20180524132803 73 297 8.0 12.0 0.00 0.00 0.00 70 1019.0
20180524132657 73 292 9.0 12.0 0.00 0.00 0.00 69 1019.1
20180524132552 73 291 9.0 12.0 0.00 0.00 0.00 70 1019.0
20180524132451 73 307 9.0 12.0 0.00 0.00 0.00 70 1019.1
20180524132348 73 295 9.0 12.0 0.00 0.00 0.00 70 1019.1
20180524132247 73 282 9.0 12.0 0.00 0.00 0.00 70 1019.0
20180524132147 73 306 9.0 12.0 0.00 0.00 0.00 70 1019.1
20180524132047 73 292 8.0 13.0 0.00 0.00 0.00 71 1019.1
20180524131947 73 306 9.0 13.0 0.00 0.00 0.00 71 1019.1
20180524131846 73 321 9.0 13.0 0.00 0.00 0.00 70 1019.1
20180524131747 73 294 9.0 13.0 0.00 0.00 0.00 70 1019.1
20180524131648 73 295 9.0 13.0 0.00 0.00 0.00 70 1019.1
20180524131602 72 286 9.0 14.0 0.00 0.00 0.00 72 1019.1
20180524131445 72 315 10.0 14.0 0.00 0.00 0.00 70 1019.1
20180524131344 72 319 11.0 14.0 0.00 0.00 0.00 70 1019.1
20180524131245 72 303 10.0 14.0 0.00 0.00 0.00 71 1019.1
20180524131145 72 305 10.0 14.0 0.00 0.00 0.00 71 1019.1
20180524131057 72 297 9.0 14.0 0.00 0.00 0.00 72 1019.1
20180524130952 72 290 10.0 14.0 0.00 0.00 0.00 72 1019.0
20180524130849 72 294 11.0 14.0 0.00 0.00 0.00 72 1019.1
20180524130750 72 304 10.0 14.0 0.00 0.00 0.00 72 1019.1
20180524130651 72 292 10.0 12.0 0.00 0.00 0.00 73 1019.1
20180524130545 72 301 9.0 12.0 0.00 0.00 0.00 72 1019.1
20180524130445 71 295 8.0 12.0 0.00 0.00 0.00 72 1019.2
20180524130346 71 283 8.0 12.0 0.00 0.00 0.00 74 1019.2
20180524130244 71 284 8.0 12.0 0.00 0.00 0.00 73 1019.2
20180524130203 71 304 8.0 13.0 0.00 0.00 0.00 73 1019.2
20180524130056 71 307 8.0 13.0 0.00 0.00 0.00 74 1019.2
20180524125953 71 302 9.0 13.0 0.00 0.00 0.00 74 1019.2
20180524125848 71 296 9.0 13.0 0.00 0.00 0.00 75 1019.2
20180524125745 71 288 8.0 13.0 0.00 0.00 0.00 75 1019.2
20180524125646 71 304 7.0 13.0 0.00 0.00 0.00 76 1019.2
20180524125600 71 300 7.0 13.0 0.00 0.00 0.00 76 1019.2
20180524125456 70 248 8.0 13.0 0.00 0.00 0.00 76 1019.2
20180524125359 70 284 8.0 13.0 0.00 0.00 0.00 76 1019.2
20180524125257 70 289 7.0 13.0 0.00 0.00 0.00 77 1019.2
20180524125050 70 281 9.0 13.0 0.00 0.00 0.00 77 1019.2
20180524124949 70 304 8.0 13.0 0.00 0.00 0.00 77 1019.2
20180524124847 70 294 8.0 13.0 0.00 0.00 0.00 78 1019.2
20180524124748 70 301 8.0 13.0 0.00 0.00 0.00 78 1019.3
20180524124650 69 288 9.0 13.0 0.00 0.00 0.00 77 1019.3
20180524124602 69 285 9.0 13.0 0.00 0.00 0.00 78 1019.3
20180524124500 69 300 10.0 13.0 0.00 0.00 0.00 78 1019.3
20180524124356 69 301 10.0 12.0 0.00 0.00 0.00 79 1019.3
20180524124251 69 309 9.0 12.0 0.00 0.00 0.00 78 1019.3
20180524124148 69 279 9.0 11.0 0.00 0.00 0.00 79 1019.3
20180524124102 69 300 9.0 11.0 0.00 0.00 0.00 79 1019.3
20180524123845 69 291 8.0 11.0 0.00 0.00 0.00 80 1019.2
20180524123744 68 283 8.0 11.0 0.00 0.00 0.00 80 1019.2
20180524123645 68 286 8.0 11.0 0.00 0.00 0.00 80 1019.2
20180524123600 68 291 8.0 11.0 0.00 0.00 0.00 80 1019.2
20180524123453 68 290 8.0 11.0 0.00 0.00 0.00 80 1019.1
20180524123351 68 296 8.0 11.0 0.00 0.00 0.00 80 1019.1
20180524123256 68 292 8.0 10.0 0.00 0.00 0.00 80 1019.1
20180524123150 68 283 7.0 10.0 0.00 0.00 0.00 80 1019.2
20180524123100 68 255 8.0 10.0 0.00 0.00 0.00 80 1019.1
20180524122955 68 292 7.0 10.0 0.00 0.00 0.00 80 1019.2
20180524122856 68 246 7.0 9.0 0.00 0.00 0.00 80 1019.2
20180524122751 68 282 6.0 9.0 0.00 0.00 0.00 80 1019.1
20180524122652 68 245 5.0 9.0 0.00 0.00 0.00 81 1019.2
20180524122449 68 302 6.0 9.0 0.00 0.00 0.00 81 1019.2
20180524122351 68 251 6.0 9.0 0.00 0.00 0.00 81 1019.2
20180524122251 68 248 6.0 9.0 0.00 0.00 0.00 81 1019.2
20180524122151 68 307 6.0 9.0 0.00 0.00 0.00 81 1019.2
20180524122045 68 251 6.0 9.0 0.00 0.00 0.00 81 1019.2
20180524121948 67 246 5.0 9.0 0.00 0.00 0.00 81 1019.2
20180524121804 67 249 3.0 8.0 0.00 0.00 0.00 81 1019.2
20180524121701 67 249 3.0 8.0 0.00 0.00 0.00 81 1019.2
20180524121451 67 249 4.0 8.0 0.00 0.00 0.00 81 1019.2
20180524121353 67 249 4.0 8.0 0.00 0.00 0.00 81 1019.2
20180524121255 67 249 5.0 9.0 0.00 0.00 0.00 81 1019.1
20180524121152 67 249 5.0 9.0 0.00 0.00 0.00 81 1019.2
20180524121049 67 246 4.0 9.0 0.00 0.00 0.00 81 1019.2
20180524120946 67 250 4.0 9.0 0.00 0.00 0.00 82 1019.2
20180524120903 67 250 4.0 9.0 0.00 0.00 0.00 82 1019.2
20180524120803 67 250 5.0 9.0 0.00 0.00 0.00 81 1019.2
20180524120702 67 252 5.0 9.0 0.00 0.00 0.00 81 1019.2
20180524120557 67 257 5.0 9.0 0.00 0.00 0.00 81 1019.2
20180524120458 67 278 6.0 9.0 0.00 0.00 0.00 81 1019.3
20180524120359 67 291 5.0 8.0 0.00 0.00 0.00 81 1019.3
20180524120253 67 249 5.0 7.0 0.00 0.00 0.00 82 1019.3
20180524120154 67 248 4.0 7.0 0.00 0.00 0.00 82 1019.3
20180524120047 67 248 3.0 7.0 0.00 0.00 0.00 82 1019.3
20180524115947 67 248 3.0 7.0 0.00 0.00 0.00 82 1019.3
20180524115853 67 248 3.0 7.0 0.00 0.00 0.00 82 1019.3
20180524115751 67 248 3.0 7.0 0.00 0.00 0.00 82 1019.3
20180524115653 67 248 4.0 7.0 0.00 0.00 0.00 82 1019.3
20180524115548 67 248 4.0 7.0 0.00 0.00 0.00 82 1019.3
20180524115447 67 248 4.0 7.0 0.00 0.00 0.00 82 1019.3
20180524115345 67 248 4.0 7.0 0.00 0.00 0.00 82 1019.3
20180524115248 67 248 3.0 6.0 0.00 0.00 0.00 82 1019.3
20180524115102 67 248 2.0 6.0 0.00 0.00 0.00 82 1019.3
20180524115002 67 248 2.0 5.0 0.00 0.00 0.00 82 1019.3
20180524114900 67 248 2.0 5.0 0.00 0.00 0.00 82 1019.3
20180524114800 67 248 2.0 6.0 0.00 0.00 0.00 82 1019.2
20180524114700 67 248 3.0 6.0 0.00 0.00 0.00 82 1019.2
20180524114556 67 248 3.0 6.0 0.00 0.00 0.00 83 1019.2
20180524114455 67 248 3.0 6.0 0.00 0.00 0.00 83 1019.2
20180524114353 66 248 3.0 6.0 0.00 0.00 0.00 83 1019.2
20180524114252 66 248 3.0 6.0 0.00 0.00 0.00 83 1019.2
20180524114151 66 248 3.0 6.0 0.00 0.00 0.00 83 1019.2
20180524114046 66 248 3.0 6.0 0.00 0.00 0.00 83 1019.2
20180524113947 66 248 3.0 6.0 0.00 0.00 0.00 83 1019.1
20180524113846 66 248 3.0 6.0 0.00 0.00 0.00 83 1019.1
20180524113746 66 248 2.0 6.0 0.00 0.00 0.00 84 1019.1
20180524113705 66 248 2.0 6.0 0.00 0.00 0.00 84 1019.1
20180524113557 66 248 2.0 6.0 0.00 0.00 0.00 84 1019.2
20180524113458 66 248 3.0 6.0 0.00 0.00 0.00 84 1019.2
20180524113359 66 248 4.0 6.0 0.00 0.00 0.00 84 1019.2
20180524113258 66 248 4.0 6.0 0.00 0.00 0.00 84 1019.2
20180524113202 66 248 3.0 6.0 0.00 0.00 0.00 84 1019.2
20180524113056 65 248 1.0 5.0 0.00 0.00 0.00 84 1019.2
20180524112956 65 248 0.0 3.0 0.00 0.00 0.00 84 1019.2
20180524112753 65 248 0.0 3.0 0.00 0.00 0.00 85 1019.2
20180524112654 65 248 1.0 3.0 0.00 0.00 0.00 85 1019.2
20180524112552 65 248 0.0 3.0 0.00 0.00 0.00 85 1019.2
20180524112453 65 248 0.0 3.0 0.00 0.00 0.00 85 1019.1
20180524112351 65 248 0.0 5.0 0.00 0.00 0.00 85 1019.2
20180524112251 65 248 1.0 5.0 0.00 0.00 0.00 85 1019.2
20180524112150 65 248 0.0 6.0 0.00 0.00 0.00 85 1019.2
20180524112058 65 248 0.0 6.0 0.00 0.00 0.00 85 1019.2
20180524111953 65 248 1.0 6.0 0.00 0.00 0.00 86 1019.2
20180524111855 65 248 1.0 6.0 0.00 0.00 0.00 86 1019.2
20180524111755 65 248 1.0 6.0 0.00 0.00 0.00 86 1019.2
20180524111655 65 248 2.0 6.0 0.00 0.00 0.00 86 1019.3
20180524111551 65 248 3.0 6.0 0.00 0.00 0.00 85 1019.2
20180524111449 65 248 4.0 6.0 0.00 0.00 0.00 85 1019.3
20180524111347 65 248 4.0 6.0 0.00 0.00 0.00 85 1019.3
20180524111244 65 248 3.0 6.0 0.00 0.00 0.00 85 1019.3
20180524111148 65 248 3.0 6.0 0.00 0.00 0.00 85 1019.3
20180524111059 65 248 4.0 6.0 0.00 0.00 0.00 85 1019.3
20180524111000 65 248 4.0 6.0 0.00 0.00 0.00 85 1019.3
20180524110856 65 248 4.0 6.0 0.00 0.00 0.00 85 1019.3
20180524110756 65 248 4.0 6.0 0.00 0.00 0.00 85 1019.3
20180524110655 65 248 4.0 6.0 0.00 0.00 0.00 85 1019.3
20180524110548 65 248 4.0 6.0 0.00 0.00 0.00 85 1019.2
20180524110450 65 248 4.0 6.0 0.00 0.00 0.00 85 1019.2
20180524110349 65 248 3.0 6.0 0.00 0.00 0.00 85 1019.2
20180524110246 65 248 2.0 5.0 0.00 0.00 0.00 85 1019.2
20180524110104 65 248 2.0 5.0 0.00 0.00 0.00 85 1019.2
20180524105959 65 248 2.0 5.0 0.00 0.00 0.00 85 1019.2
20180524105801 65 248 1.0 4.0 0.00 0.00 0.00 85 1019.3
20180524105700 65 248 1.0 5.0 0.00 0.00 0.00 85 1019.2
20180524105555 65 248 1.0 5.0 0.00 0.00 0.00 85 1019.2
20180524105455 65 248 1.0 5.0 0.00 0.00 0.00 85 1019.2
20180524105355 65 248 1.0 5.0 0.00 0.00 0.00 85 1019.1
20180524105255 65 248 1.0 5.0 0.00 0.00 0.00 85 1019.1
20180524105159 65 248 2.0 7.0 0.00 0.00 0.00 85 1019.1
20180524105051 65 248 2.0 7.0 0.00 0.00 0.00 85 1019.1
20180524104951 65 248 2.0 7.0 0.00 0.00 0.00 85 1019.1
20180524104845 65 248 1.0 7.0 0.00 0.00 0.00 85 1019.1
20180524104745 65 248 0.0 7.0 0.00 0.00 0.00 85 1019.1
20180524104703 65 248 1.0 7.0 0.00 0.00 0.00 85 1019.1
20180524104554 65 248 2.0 7.0 0.00 0.00 0.00 85 1019.1
20180524104457 65 248 4.0 7.0 0.00 0.00 0.00 85 1019.1
20180524104355 65 248 5.0 9.0 0.00 0.00 0.00 85 1019.1
20180524104256 65 248 5.0 9.0 0.00 0.00 0.00 85 1019.1
20180524104155 65 248 5.0 9.0 0.00 0.00 0.00 85 1019.1
20180524104047 65 248 4.0 9.0 0.00 0.00 0.00 85 1019.1
20180524103948 65 248 3.0 9.0 0.00 0.00 0.00 85 1019.1
20180524103844 65 248 3.0 9.0 0.00 0.00 0.00 85 1019.1
20180524103748 65 248 4.0 9.0 0.00 0.00 0.00 85 1019.0
20180524103646 65 248 5.0 9.0 0.00 0.00 0.00 85 1019.1
20180524103555 65 281 6.0 9.0 0.00 0.00 0.00 85 1019.1
20180524103453 65 250 6.0 8.0 0.00 0.00 0.00 85 1019.1
20180524103353 65 248 5.0 8.0 0.00 0.00 0.00 86 1019.1
20180524103252 64 245 5.0 8.0 0.00 0.00 0.00 86 1019.2
20180524103152 64 281 6.0 8.0 0.00 0.00 0.00 86 1019.2
20180524103048 64 294 7.0 8.0 0.00 0.00 0.00 86 1019.2
20180524102947 64 248 7.0 8.0 0.00 0.00 0.00 86 1019.2
20180524102845 65 248 7.0 8.0 0.00 0.00 0.00 85 1019.2
20180524102702 65 249 6.0 8.0 0.00 0.00 0.00 85 1019.2
20180524102554 65 248 6.0 8.0 0.00 0.00 0.00 85 1019.1
20180524102452 65 248 6.0 8.0 0.00 0.00 0.00 85 1019.1
20180524102356 65 248 6.0 8.0 0.00 0.00 0.00 85 1019.1
20180524102256 65 248 6.0 8.0 0.00 0.00 0.00 85 1019.1
20180524102153 65 248 6.0 8.0 0.00 0.00 0.00 85 1019.1
20180524102048 65 248 6.0 8.0 0.00 0.00 0.00 86 1019.1
20180524101945 65 249 5.0 7.0 0.00 0.00 0.00 86 1019.1
20180524101901 65 249 5.0 7.0 0.00 0.00 0.00 86 1019.1
20180524101802 65 248 4.0 7.0 0.00 0.00 0.00 86 1019.1
20180524101647 64 250 3.0 7.0 0.00 0.00 0.00 86 1019.1
20180524101554 64 250 2.0 7.0 0.00 0.00 0.00 86 1019.0
20180524101453 64 250 2.0 7.0 0.00 0.00 0.00 86 1019.0
20180524101353 64 250 3.0 7.0 0.00 0.00 0.00 86 1019.0
20180524101250 64 250 3.0 7.0 0.00 0.00 0.00 87 1019.0
20180524101148 64 250 2.0 7.0 0.00 0.00 0.00 87 1019.0
20180524101102 64 250 3.0 7.0 0.00 0.00 0.00 87 1019.0
20180524100946 64 250 5.0 7.0 0.00 0.00 0.00 87 1019.1
20180524100845 64 250 6.0 7.0 0.00 0.00 0.00 87 1019.1
20180524100744 64 250 7.0 7.0 0.00 0.00 0.00 87 1019.1
20180524100645 64 250 6.0 7.0 0.00 0.00 0.00 87 1019.2
20180524100600 64 250 6.0 7.0 0.00 0.00 0.00 87 1019.2
20180524100458 64 250 5.0 7.0 0.00 0.00 0.00 87 1019.2
20180524100257 64 250 5.0 7.0 0.00 0.00 0.00 86 1019.2
20180524100157 64 250 4.0 7.0 0.00 0.00 0.00 86 1019.2
20180524100051 64 250 4.0 7.0 0.00 0.00 0.00 86 1019.2
20180524095952 64 250 5.0 7.0 0.00 0.00 0.00 86 1019.2
20180524095851 64 250 5.0 7.0 0.00 0.00 0.00 86 1019.2
20180524095751 65 250 5.0 7.0 0.00 0.00 0.00 86 1019.1
20180524095655 65 250 5.0 7.0 0.00 0.00 0.00 86 1019.1
20180524095545 65 250 5.0 7.0 0.00 0.00 0.00 86 1019.1
20180524095446 65 250 5.0 7.0 0.00 0.00 0.00 86 1019.1
20180524095345 65 250 5.0 7.0 0.00 0.00 0.00 85 1019.1
20180524095201 65 250 5.0 7.0 0.00 0.00 0.00 85 1019.1
20180524095053 65 250 5.0 7.0 0.00 0.00 0.00 85 1019.1
20180524094956 65 250 4.0 7.0 0.00 0.00 0.00 85 1019.1
20180524094854 65 250 4.0 7.0 0.00 0.00 0.00 85 1019.0
20180524094752 65 250 4.0 7.0 0.00 0.00 0.00 85 1019.1
20180524094653 65 250 5.0 7.0 0.00 0.00 0.00 85 1019.1
20180524094558 65 250 5.0 7.0 0.00 0.00 0.00 85 1019.1
20180524094457 65 250 5.0 7.0 0.00 0.00 0.00 85 1019.0
20180524094357 65 250 5.0 7.0 0.00 0.00 0.00 85 1019.1
20180524094300 65 290 6.0 7.0 0.00 0.00 0.00 85 1019.0
20180524094158 65 247 6.0 7.0 0.00 0.00 0.00 85 1019.0
20180524094052 65 247 6.0 8.0 0.00 0.00 0.00 85 1019.0
20180524093951 65 248 6.0 8.0 0.00 0.00 0.00 85 1019.1
20180524093850 65 247 5.0 9.0 0.00 0.00 0.00 85 1019.1
20180524093748 65 248 5.0 9.0 0.00 0.00 0.00 84 1019.1
20180524093648 65 248 5.0 9.0 0.00 0.00 0.00 84 1019.1
20180524093547 65 248 5.0 9.0 0.00 0.00 0.00 84 1019.1
20180524093447 66 247 6.0 9.0 0.00 0.00 0.00 84 1019.0
20180524093404 66 247 6.0 9.0 0.00 0.00 0.00 84 1019.0
20180524093304 65 248 6.0 9.0 0.00 0.00 0.00 84 1019.0
20180524093202 65 294 6.0 9.0 0.00 0.00 0.00 84 1019.0
20180524093055 65 246 6.0 9.0 0.00 0.00 0.00 85 1019.0
20180524092955 65 290 7.0 8.0 0.00 0.00 0.00 85 1018.9
20180524092859 65 250 7.0 8.0 0.00 0.00 0.00 85 1018.9
20180524092758 65 250 7.0 8.0 0.00 0.00 0.00 85 1019.0
20180524092655 65 250 6.0 8.0 0.00 0.00 0.00 84 1019.0
20180524092547 66 250 6.0 8.0 0.00 0.00 0.00 84 1019.0
20180524092448 66 250 6.0 8.0 0.00 0.00 0.00 84 1019.0
20180524092347 66 250 6.0 7.0 0.00 0.00 0.00 84 1019.0
20180524092251 66 250 6.0 7.0 0.00 0.00 0.00 84 1018.9
20180524092149 66 250 5.0 7.0 0.00 0.00 0.00 83 1018.9
20180524092103 66 250 5.0 7.0 0.00 0.00 0.00 83 1019.0
20180524092003 66 250 5.0 7.0 0.00 0.00 0.00 83 1018.9
20180524091902 66 250 5.0 7.0 0.00 0.00 0.00 83 1018.9
20180524091659 66 250 4.0 7.0 0.00 0.00 0.00 83 1018.9
20180524091557 66 250 4.0 7.0 0.00 0.00 0.00 84 1018.9
20180524091457 66 250 4.0 7.0 0.00 0.00 0.00 84 1018.9
20180524091356 66 249 4.0 7.0 0.00 0.00 0.00 84 1018.9
20180524091248 66 250 3.0 7.0 0.00 0.00 0.00 84 1018.9
20180524091144 66 250 3.0 7.0 0.00 0.00 0.00 84 1018.9
20180524091058 66 250 3.0 7.0 0.00 0.00 0.00 84 1018.9
20180524090957 66 250 3.0 7.0 0.00 0.00 0.00 84 1018.8
20180524090855 66 249 2.0 7.0 0.00 0.00 0.00 84 1018.8
20180524090755 66 250 2.0 7.0 0.00 0.00 0.00 84 1018.8
20180524090650 66 250 2.0 7.0 0.00 0.00 0.00 84 1018.8
20180524090544 66 250 3.0 7.0 0.00 0.00 0.00 84 1018.8
20180524090502 66 250 2.0 6.0 0.00 0.00 0.00 84 1018.8
20180524090358 66 250 2.0 6.0 0.00 0.00 0.00 84 1018.8
20180524090258 66 250 2.0 6.0 0.00 0.00 0.00 84 1018.8
20180524090217 66 250 2.0 6.0 0.00 0.00 0.00 84 1018.8
20180524090104 66 250 3.0 6.0 0.00 0.00 0.00 84 1018.8
20180524085958 66 250 3.0 6.0 0.00 0.00 0.00 84 1018.8
20180524085857 66 250 3.0 6.0 0.00 0.00 0.00 84 1018.9
20180524085758 66 250 3.0 6.0 0.00 0.00 0.00 84 1018.9
20180524085656 66 250 2.0 6.0 0.00 0.00 0.00 84 1018.9
20180524085551 66 250 2.0 6.0 0.00 0.00 0.00 84 1018.9
20180524085455 66 250 2.0 6.0 0.00 0.00 0.00 84 1018.9
20180524085355 66 250 1.0 6.0 0.00 0.00 0.00 84 1018.9
20180524085255 66 250 2.0 6.0 0.00 0.00 0.00 84 1018.9
20180524085157 66 250 2.0 6.0 0.00 0.00 0.00 84 1018.9
20180524085103 66 250 2.0 6.0 0.00 0.00 0.00 84 1018.9
20180524085000 66 250 2.0 6.0 0.00 0.00 0.00 84 1018.9
20180524084900 66 250 2.0 5.0 0.00 0.00 0.00 84 1018.9
20180524084802 66 250 2.0 5.0 0.00 0.00 0.00 84 1018.8
20180524084703 66 250 2.0 5.0 0.00 0.00 0.00 84 1018.8
20180524084556 66 250 2.0 5.0 0.00 0.00 0.00 84 1018.8
20180524084455 66 250 2.0 5.0 0.00 0.00 0.00 84 1018.8
20180524084353 66 250 2.0 5.0 0.00 0.00 0.00 84 1018.8
20180524084254 66 250 2.0 5.0 0.00 0.00 0.00 84 1018.7
20180524084152 66 250 1.0 5.0 0.00 0.00 0.00 84 1018.8
20180524083948 66 249 1.0 5.0 0.00 0.00 0.00 84 1018.8
20180524083906 66 250 1.0 6.0 0.00 0.00 0.00 84 1018.8
20180524083801 66 250 1.0 6.0 0.00 0.00 0.00 84 1018.8
20180524083658 66 250 1.0 6.0 0.00 0.00 0.00 84 1018.8
20180524083603 66 250 2.0 6.0 0.00 0.00 0.00 84 1018.8
20180524083501 66 250 3.0 6.0 0.00 0.00 0.00 84 1018.8
20180524083402 67 250 3.0 6.0 0.00 0.00 0.00 84 1018.9
20180524083259 67 250 4.0 6.0 0.00 0.00 0.00 84 1018.9
20180524083159 67 250 4.0 6.0 0.00 0.00 0.00 84 1018.9
20180524083050 67 250 3.0 6.0 0.00 0.00 0.00 84 1018.8
20180524082951 67 250 2.0 4.0 0.00 0.00 0.00 84 1018.8
20180524082850 67 250 2.0 5.0 0.00 0.00 0.00 84 1018.8
20180524082750 67 250 2.0 5.0 0.00 0.00 0.00 84 1018.8
20180524082652 67 250 2.0 5.0 0.00 0.00 0.00 83 1018.7
20180524082546 67 250 1.0 5.0 0.00 0.00 0.00 83 1018.7
20180524082446 67 250 2.0 5.0 0.00 0.00 0.00 83 1018.7
20180524082344 67 250 2.0 5.0 0.00 0.00 0.00 83 1018.7
20180524082145 67 250 3.0 5.0 0.00 0.00 0.00 83 1018.8
20180524082044 67 250 2.0 5.0 0.00 0.00 0.00 83 1018.8
20180524082003 67 249 2.0 5.0 0.00 0.00 0.00 83 1018.8
20180524081903 67 250 2.0 7.0 0.00 0.00 0.00 83 1018.8
20180524081757 67 250 2.0 7.0 0.00 0.00 0.00 83 1018.7
20180524081657 67 250 2.0 7.0 0.00 0.00 0.00 83 1018.8
20180524081549 67 250 2.0 7.0 0.00 0.00 0.00 83 1018.8
20180524081449 67 250 2.0 7.0 0.00 0.00 0.00 83 1018.7
20180524081251 67 250 2.0 7.0 0.00 0.00 0.00 83 1018.7
20180524081151 67 250 3.0 7.0 0.00 0.00 0.00 83 1018.7
20180524081045 67 250 3.0 7.0 0.00 0.00 0.00 83 1018.7
20180524081003 67 250 3.0 6.0 0.00 0.00 0.00 83 1018.7
20180524080859 67 250 2.0 6.0 0.00 0.00 0.00 83 1018.7
20180524080758 67 250 2.0 6.0 0.00 0.00 0.00 83 1018.7
20180524080655 67 250 3.0 6.0 0.00 0.00 0.00 83 1018.7
20180524080549 67 250 3.0 7.0 0.00 0.00 0.00 84 1018.7
20180524080348 67 250 3.0 7.0 0.00 0.00 0.00 84 1018.6
20180524080247 67 250 3.0 7.0 0.00 0.00 0.00 84 1018.6
20180524080148 67 250 2.0 7.0 0.00 0.00 0.00 84 1018.6
20180524080103 67 250 2.0 7.0 0.00 0.00 0.00 84 1018.6
20180524075959 67 250 3.0 7.0 0.00 0.00 0.00 84 1018.6
20180524075855 67 250 3.0 7.0 0.00 0.00 0.00 84 1018.6
20180524075755 67 250 3.0 7.0 0.00 0.00 0.00 84 1018.6
20180524075652 67 250 3.0 6.0 0.00 0.00 0.00 84 1018.6
20180524075446 67 249 3.0 6.0 0.00 0.00 0.00 84 1018.6
20180524075404 67 249 3.0 6.0 0.00 0.00 0.00 84 1018.6
20180524075247 67 250 3.0 6.0 0.00 0.00 0.00 84 1018.6
20180524075146 67 250 3.0 6.0 0.00 0.00 0.00 84 1018.6
20180524075101 67 250 2.0 4.0 0.00 0.00 0.00 84 1018.6
20180524074957 67 250 2.0 4.0 0.00 0.00 0.00 84 1018.6
20180524074858 67 249 2.0 4.0 0.00 0.00 0.00 84 1018.6
20180524074756 67 250 2.0 5.0 0.00 0.00 0.00 84 1018.6
20180524074656 67 249 2.0 5.0 0.00 0.00 0.00 84 1018.6
20180524074554 67 250 2.0 5.0 0.00 0.00 0.00 84 1018.6
20180524074452 67 250 2.0 5.0 0.00 0.00 0.00 84 1018.6
20180524074352 67 249 2.0 5.0 0.00 0.00 0.00 84 1018.6
20180524074250 67 249 2.0 6.0 0.00 0.00 0.00 84 1018.6
20180524074150 67 250 2.0 6.0 0.00 0.00 0.00 84 1018.6
20180524074100 67 249 3.0 6.0 0.00 0.00 0.00 84 1018.6
20180524074000 67 249 2.0 6.0 0.00 0.00 0.00 84 1018.5
20180524073902 67 250 2.0 6.0 0.00 0.00 0.00 84 1018.5
20180524073800 67 249 2.0 6.0 0.00 0.00 0.00 84 1018.5
20180524073700 67 250 3.0 6.0 0.00 0.00 0.00 84 1018.5
20180524073553 67 250 3.0 6.0 0.00 0.00 0.00 84 1018.4
20180524073452 67 249 4.0 6.0 0.00 0.00 0.00 84 1018.4
20180524073352 67 250 3.0 6.0 0.00 0.00 0.00 84 1018.4
20180524073256 67 249 2.0 6.0 0.00 0.00 0.00 84 1018.4
20180524073148 67 250 2.0 6.0 0.00 0.00 0.00 83 1018.3
20180524073058 67 250 2.0 7.0 0.00 0.00 0.00 83 1018.4
20180524072953 67 249 3.0 7.0 0.00 0.00 0.00 83 1018.3
20180524072853 68 250 3.0 7.0 0.00 0.00 0.00 83 1018.4
20180524072754 68 250 3.0 7.0 0.00 0.00 0.00 83 1018.4
20180524072654 68 249 4.0 7.0 0.00 0.00 0.00 83 1018.4
20180524072552 68 249 4.0 7.0 0.00 0.00 0.00 83 1018.5
20180524072448 68 249 4.0 7.0 0.00 0.00 0.00 83 1018.4
20180524072348 68 250 4.0 7.0 0.00 0.00 0.00 83 1018.4
20180524072248 68 250 4.0 7.0 0.00 0.00 0.00 83 1018.4
20180524072149 68 249 4.0 6.0 0.00 0.00 0.00 83 1018.3
20180524072058 68 250 4.0 6.0 0.00 0.00 0.00 83 1018.4
20180524071958 68 249 3.0 6.0 0.00 0.00 0.00 83 1018.3
20180524071902 68 250 4.0 6.0 0.00 0.00 0.00 83 1018.3
20180524071802 68 250 3.0 6.0 0.00 0.00 0.00 83 1018.3
20180524071701 68 250 3.0 6.0 0.00 0.00 0.00 83 1018.3
20180524071555 68 250 3.0 8.0 0.00 0.00 0.00 83 1018.3
20180524071451 68 250 3.0 8.0 0.00 0.00 0.00 83 1018.3
20180524071349 68 250 3.0 8.0 0.00 0.00 0.00 83 1018.3
20180524071247 68 250 3.0 8.0 0.00 0.00 0.00 83 1018.3
20180524071150 68 249 3.0 8.0 0.00 0.00 0.00 83 1018.3
20180524071103 68 250 3.0 8.0 0.00 0.00 0.00 83 1018.3
20180524070943 68 250 3.0 8.0 0.00 0.00 0.00 83 1018.3
20180524070902 68 250 4.0 8.0 0.00 0.00 0.00 84 1018.3
20180524070752 68 250 4.0 8.0 0.00 0.00 0.00 84 1018.4
20180524070652 68 249 3.0 8.0 0.00 0.00 0.00 84 1018.4
20180524070603 68 249 3.0 5.0 0.00 0.00 0.00 84 1018.3
20180524070446 68 250 3.0 5.0 0.00 0.00 0.00 84 1018.4
20180524070346 68 249 2.0 5.0 0.00 0.00 0.00 84 1018.3
20180524070246 68 250 2.0 5.0 0.00 0.00 0.00 84 1018.3
20180524070204 68 250 2.0 5.0 0.00 0.00 0.00 84 1018.3
20180524070054 68 250 2.0 5.0 0.00 0.00 0.00 84 1018.3
20180524065851 68 249 2.0 5.0 0.00 0.00 0.00 84 1018.3
20180524065754 68 249 2.0 4.0 0.00 0.00 0.00 84 1018.4
20180524065654 68 250 2.0 4.0 0.00 0.00 0.00 84 1018.3
20180524065548 68 250 2.0 4.0 0.00 0.00 0.00 84 1018.4
20180524065448 68 250 2.0 4.0 0.00 0.00 0.00 84 1018.4
20180524065346 68 250 2.0 4.0 0.00 0.00 0.00 84 1018.5
20180524065303 68 249 2.0 4.0 0.00 0.00 0.00 84 1018.4
20180524065145 68 249 2.0 4.0 0.00 0.00 0.00 84 1018.4
20180524065058 68 250 2.0 5.0 0.00 0.00 0.00 84 1018.4
20180524064957 68 250 2.0 5.0 0.00 0.00 0.00 84 1018.4
20180524064856 68 249 2.0 5.0 0.00 0.00 0.00 84 1018.4
20180524064754 68 249 2.0 5.0 0.00 0.00 0.00 84 1018.4
20180524064654 68 250 2.0 5.0 0.00 0.00 0.00 84 1018.4
20180524064548 68 250 2.0 5.0 0.00 0.00 0.00 84 1018.4
20180524064450 68 250 3.0 5.0 0.00 0.00 0.00 84 1018.5
20180524064350 68 250 3.0 5.0 0.00 0.00 0.00 84 1018.4
20180524064249 68 249 3.0 5.0 0.00 0.00 0.00 84 1018.4
20180524064148 68 250 3.0 5.0 0.00 0.00 0.00 84 1018.4
20180524064101 68 250 3.0 5.0 0.00 0.00 0.00 84 1018.3
20180524064001 68 249 4.0 5.0 0.00 0.00 0.00 84 1018.4
20180524063900 68 249 3.0 5.0 0.00 0.00 0.00 84 1018.3
20180524063812 68 250 3.0 5.0 0.00 0.00 0.00 84 1018.4
20180524063711 68 249 3.0 7.0 0.00 0.00 0.00 84 1018.4
20180524063556 68 250 2.0 7.0 0.00 0.00 0.00 84 1018.4
20180524063353 68 250 2.0 7.0 0.00 0.00 0.00 84 1018.4
20180524063249 68 249 2.0 7.0 0.00 0.00 0.00 84 1018.4
20180524063150 68 249 2.0 7.0 0.00 0.00 0.00 84 1018.4
20180524063100 68 250 3.0 7.0 0.00 0.00 0.00 84 1018.4
20180524062959 68 250 2.0 7.0 0.00 0.00 0.00 85 1018.5
20180524062901 68 249 2.0 6.0 0.00 0.00 0.00 85 1018.4
20180524062755 68 249 2.0 6.0 0.00 0.00 0.00 85 1018.3
20180524062655 68 250 2.0 6.0 0.00 0.00 0.00 85 1018.4
20180524062550 68 249 2.0 6.0 0.00 0.00 0.00 85 1018.3
20180524062449 68 250 2.0 6.0 0.00 0.00 0.00 85 1018.4
20180524062354 68 250 3.0 6.0 0.00 0.00 0.00 85 1018.3
20180524062253 68 249 3.0 6.0 0.00 0.00 0.00 84 1018.4
20180524062155 68 249 4.0 6.0 0.00 0.00 0.00 84 1018.4
20180524062047 68 249 5.0 6.0 0.00 0.00 0.00 84 1018.4
20180524061944 68 250 4.0 6.0 0.00 0.00 0.00 84 1018.4
20180524061901 68 249 4.0 6.0 0.00 0.00 0.00 84 1018.4
20180524061759 68 249 3.0 6.0 0.00 0.00 0.00 84 1018.4
20180524061703 69 249 2.0 5.0 0.00 0.00 0.00 84 1018.3
20180524061555 69 250 2.0 5.0 0.00 0.00 0.00 84 1018.3
20180524061455 69 249 2.0 5.0 0.00 0.00 0.00 84 1018.3
20180524061352 69 249 2.0 5.0 0.00 0.00 0.00 84 1018.3
20180524061252 69 250 2.0 6.0 0.00 0.00 0.00 84 1018.4
20180524061151 69 249 2.0 6.0 0.00 0.00 0.00 84 1018.4
20180524061046 69 249 2.0 6.0 0.00 0.00 0.00 84 1018.4
20180524060944 69 249 3.0 6.0 0.00 0.00 0.00 84 1018.4
20180524060903 69 250 3.0 6.0 0.00 0.00 0.00 84 1018.4
20180524060556 69 249 3.0 6.0 0.00 0.00 0.00 83 1018.4
20180524060356 69 250 2.0 5.0 0.00 0.00 0.00 83 1018.4
20180524060256 69 249 3.0 5.0 0.00 0.00 0.00 83 1018.4
20180524060154 69 250 3.0 5.0 0.00 0.00 0.00 83 1018.4
20180524060050 69 250 3.0 5.0 0.00 0.00 0.00 83 1018.5
20180524055950 69 249 3.0 5.0 0.00 0.00 0.00 83 1018.5
20180524055847 69 250 3.0 5.0 0.00 0.00 0.00 83 1018.5
20180524055746 69 250 3.0 5.0 0.00 0.00 0.00 83 1018.5
20180524055647 69 250 3.0 5.0 0.00 0.00 0.00 83 1018.5
20180524055558 69 250 2.0 5.0 0.00 0.00 0.00 83 1018.5
20180524055457 69 249 2.0 4.0 0.00 0.00 0.00 83 1018.5
20180524055357 69 250 1.0 4.0 0.00 0.00 0.00 83 1018.5
20180524055156 69 250 1.0 4.0 0.00 0.00 0.00 83 1018.5
20180524055048 69 249 1.0 4.0 0.00 0.00 0.00 83 1018.5
20180524054954 69 249 1.0 5.0 0.00 0.00 0.00 83 1018.4
20180524054854 69 249 1.0 5.0 0.00 0.00 0.00 83 1018.4
20180524054650 69 250 2.0 5.0 0.00 0.00 0.00 83 1018.4
20180524054603 69 249 2.0 5.0 0.00 0.00 0.00 83 1018.4
20180524054457 69 250 2.0 5.0 0.00 0.00 0.00 82 1018.4
20180524054357 70 249 2.0 5.0 0.00 0.00 0.00 82 1018.3
20180524054302 70 250 3.0 5.0 0.00 0.00 0.00 82 1018.4
20180524054200 70 249 3.0 5.0 0.00 0.00 0.00 82 1018.4
20180524054052 70 250 2.0 4.0 0.00 0.00 0.00 82 1018.4
20180524053952 70 250 2.0 4.0 0.00 0.00 0.00 83 1018.3
20180524053850 70 249 1.0 5.0 0.00 0.00 0.00 82 1018.4
20180524053749 70 249 1.0 5.0 0.00 0.00 0.00 82 1018.4
20180524053654 70 250 1.0 5.0 0.00 0.00 0.00 82 1018.5
20180524053547 70 249 0.0 5.0 0.00 0.00 0.00 82 1018.5
20180524053348 70 250 0.0 5.0 0.00 0.00 0.00 82 1018.5
20180524053248 70 250 1.0 5.0 0.00 0.00 0.00 82 1018.5
20180524053144 70 250 2.0 5.0 0.00 0.00 0.00 82 1018.5
20180524053053 70 249 2.0 5.0 0.00 0.00 0.00 82 1018.5
20180524052958 70 250 1.0 5.0 0.00 0.00 0.00 82 1018.5
20180524052854 70 250 0.0 4.0 0.00 0.00 0.00 82 1018.5
20180524052753 70 250 1.0 4.0 0.00 0.00 0.00 82 1018.5
20180524052653 70 250 2.0 4.0 0.00 0.00 0.00 82 1018.5
20180524052547 70 250 2.0 4.0 0.00 0.00 0.00 81 1018.5
20180524052444 70 250 3.0 5.0 0.00 0.00 0.00 81 1018.5
20180524052403 70 249 2.0 5.0 0.00 0.00 0.00 81 1018.4
20180524052245 70 249 2.0 5.0 0.00 0.00 0.00 81 1018.4
20180524052144 70 250 1.0 5.0 0.00 0.00 0.00 81 1018.5
20180524052057 70 249 2.0 5.0 0.00 0.00 0.00 81 1018.4
20180524051952 70 249 2.0 5.0 0.00 0.00 0.00 81 1018.5
20180524051850 70 249 2.0 5.0 0.00 0.00 0.00 81 1018.5
20180524051751 70 249 2.0 5.0 0.00 0.00 0.00 81 1018.5
20180524051650 70 249 3.0 5.0 0.00 0.00 0.00 81 1018.5
20180524051550 70 250 3.0 5.0 0.00 0.00 0.00 81 1018.4
20180524051448 70 250 3.0 5.0 0.00 0.00 0.00 81 1018.5
20180524051346 70 249 3.0 5.0 0.00 0.00 0.00 81 1018.5
20180524051244 70 249 3.0 6.0 0.00 0.00 0.00 81 1018.5
20180524051145 70 250 3.0 6.0 0.00 0.00 0.00 81 1018.5
20180524051057 70 249 3.0 6.0 0.00 0.00 0.00 81 1018.5
20180524050959 70 250 2.0 6.0 0.00 0.00 0.00 81 1018.5
20180524050902 70 249 3.0 6.0 0.00 0.00 0.00 81 1018.5
20180524050802 70 249 3.0 6.0 0.00 0.00 0.00 81 1018.5
20180524050659 70 250 3.0 6.0 0.00 0.00 0.00 81 1018.5
20180524050553 70 249 3.0 6.0 0.00 0.00 0.00 81 1018.5
20180524050455 70 249 4.0 6.0 0.00 0.00 0.00 81 1018.5
20180524050355 70 250 3.0 5.0 0.00 0.00 0.00 81 1018.5
20180524050255 70 250 3.0 5.0 0.00 0.00 0.00 81 1018.5
20180524050212 70 250 3.0 5.0 0.00 0.00 0.00 81 1018.5
20180524050059 70 250 2.0 5.0 0.00 0.00 0.00 81 1018.6
20180524045955 70 250 3.0 5.0 0.00 0.00 0.00 81 1018.6
20180524045853 70 250 4.0 5.0 0.00 0.00 0.00 81 1018.6
20180524045754 70 250 4.0 5.0 0.00 0.00 0.00 81 1018.6
20180524045655 70 249 4.0 5.0 0.00 0.00 0.00 81 1018.6
20180524045551 71 249 4.0 5.0 0.00 0.00 0.00 81 1018.6
20180524045450 71 250 3.0 5.0 0.00 0.00 0.00 81 1018.6
20180524045349 71 250 3.0 5.0 0.00 0.00 0.00 81 1018.6
20180524045146 71 249 3.0 5.0 0.00 0.00 0.00 80 1018.6
20180524045056 71 250 2.0 4.0 0.00 0.00 0.00 80 1018.6
20180524044955 71 250 1.0 4.0 0.00 0.00 0.00 80 1018.5
20180524044859 71 250 1.0 4.0 0.00 0.00 0.00 80 1018.6
20180524044757 71 250 1.0 4.0 0.00 0.00 0.00 80 1018.6
20180524044659 71 249 1.0 5.0 0.00 0.00 0.00 80 1018.5
20180524044555 71 249 1.0 5.0 0.00 0.00 0.00 80 1018.6
20180524044454 71 249 2.0 5.0 0.00 0.00 0.00 80 1018.5
20180524044353 71 249 2.0 6.0 0.00 0.00 0.00 80 1018.5
20180524044253 71 249 2.0 6.0 0.00 0.00 0.00 80 1018.5
20180524044158 71 250 2.0 6.0 0.00 0.00 0.00 80 1018.5
20180524044054 71 250 3.0 6.0 0.00 0.00 0.00 80 1018.5
20180524043954 71 249 3.0 7.0 0.00 0.00 0.00 80 1018.5
20180524043855 71 249 3.0 7.0 0.00 0.00 0.00 80 1018.5
20180524043753 71 249 3.0 7.0 0.00 0.00 0.00 80 1018.5
20180524043655 71 249 3.0 7.0 0.00 0.00 0.00 80 1018.5
20180524043552 71 250 3.0 7.0 0.00 0.00 0.00 80 1018.5
20180524043452 71 249 3.0 7.0 0.00 0.00 0.00 80 1018.5
20180524043350 71 249 3.0 7.0 0.00 0.00 0.00 80 1018.5
20180524043245 71 250 3.0 7.0 0.00 0.00 0.00 80 1018.5
20180524043145 71 249 3.0 7.0 0.00 0.00 0.00 80 1018.5
20180524043053 71 250 2.0 7.0 0.00 0.00 0.00 80 1018.5
20180524042951 71 250 2.0 7.0 0.00 0.00 0.00 80 1018.5
20180524042855 71 249 1.0 7.0 0.00 0.00 0.00 80 1018.5
20180524042750 71 249 2.0 7.0 0.00 0.00 0.00 80 1018.5
20180524042649 71 250 2.0 7.0 0.00 0.00 0.00 80 1018.5
20180524042557 71 249 2.0 7.0 0.00 0.00 0.00 80 1018.6
20180524042456 71 249 3.0 7.0 0.00 0.00 0.00 80 1018.5
20180524042355 71 249 4.0 7.0 0.00 0.00 0.00 80 1018.5
20180524042254 71 249 5.0 7.0 0.00 0.00 0.00 80 1018.5
20180524042158 71 249 5.0 7.0 0.00 0.00 0.00 80 1018.5
20180524042051 71 249 5.0 6.0 0.00 0.00 0.00 80 1018.6
20180524041950 71 250 4.0 6.0 0.00 0.00 0.00 80 1018.5
20180524041749 71 250 4.0 6.0 0.00 0.00 0.00 79 1018.5
20180524041648 71 250 4.0 6.0 0.00 0.00 0.00 79 1018.6
20180524041602 72 250 4.0 6.0 0.00 0.00 0.00 79 1018.5
20180524041506 72 249 3.0 5.0 0.00 0.00 0.00 79 1018.5
20180524041400 72 250 3.0 5.0 0.00 0.00 0.00 78 1018.5
20180524041301 72 250 3.0 5.0 0.00 0.00 0.00 78 1018.5
20180524041202 72 249 3.0 5.0 0.00 0.00 0.00 78 1018.5
20180524041103 72 249 2.0 4.0 0.00 0.00 0.00 78 1018.5
20180524040958 72 250 1.0 4.0 0.00 0.00 0.00 78 1018.6
20180524040855 72 250 1.0 4.0 0.00 0.00 0.00 78 1018.5
20180524040757 72 249 1.0 4.0 0.00 0.00 0.00 77 1018.5
20180524040654 72 250 2.0 4.0 0.00 0.00 0.00 77 1018.6
20180524040548 72 249 2.0 4.0 0.00 0.00 0.00 77 1018.6
20180524040447 72 250 2.0 4.0 0.00 0.00 0.00 77 1018.6
20180524040349 72 249 2.0 4.0 0.00 0.00 0.00 77 1018.6
20180524040246 72 249 2.0 4.0 0.00 0.00 0.00 77 1018.6
20180524040202 72 249 2.0 4.0 0.00 0.00 0.00 77 1018.6
20180524040056 72 249 2.0 4.0 0.00 0.00 0.00 77 1018.6
20180524035957 72 249 2.0 5.0 0.00 0.00 0.00 77 1018.6
20180524035854 72 250 2.0 5.0 0.00 0.00 0.00 77 1018.6
20180524035754 72 250 2.0 5.0 0.00 0.00 0.00 77 1018.7
20180524035655 72 250 2.0 5.0 0.00 0.00 0.00 77 1018.7
20180524035545 72 250 2.0 5.0 0.00 0.00 0.00 77 1018.7
20180524035446 72 250 1.0 5.0 0.00 0.00 0.00 77 1018.7
20180524035347 73 250 1.0 5.0 0.00 0.00 0.00 77 1018.7
20180524035246 73 250 1.0 5.0 0.00 0.00 0.00 77 1018.7
20180524035202 72 250 2.0 5.0 0.00 0.00 0.00 77 1018.8
20180524035059 73 250 2.0 4.0 0.00 0.00 0.00 77 1018.7
20180524034959 72 250 2.0 4.0 0.00 0.00 0.00 77 1018.8
20180524034859 72 250 1.0 4.0 0.00 0.00 0.00 77 1018.8
20180524034757 73 249 1.0 5.0 0.00 0.00 0.00 77 1018.8
20180524034702 73 249 1.0 5.0 0.00 0.00 0.00 77 1018.8
20180524034557 73 250 2.0 5.0 0.00 0.00 0.00 77 1018.8
20180524034457 73 249 1.0 5.0 0.00 0.00 0.00 77 1018.8
20180524034352 73 249 2.0 5.0 0.00 0.00 0.00 77 1018.8
20180524034246 73 249 2.0 5.0 0.00 0.00 0.00 77 1018.8
20180524034202 73 249 2.0 5.0 0.00 0.00 0.00 77 1018.9
20180524034056 73 250 2.0 5.0 0.00 0.00 0.00 77 1018.8
20180524033958 73 249 2.0 5.0 0.00 0.00 0.00 77 1018.8
20180524033855 72 249 2.0 5.0 0.00 0.00 0.00 77 1018.8
20180524033655 72 249 1.0 4.0 0.00 0.00 0.00 77 1018.9
20180524033549 72 250 1.0 4.0 0.00 0.00 0.00 77 1018.8
20180524033449 73 249 0.0 4.0 0.00 0.00 0.00 77 1018.8
20180524033244 73 250 1.0 4.0 0.00 0.00 0.00 77 1018.8
20180524033159 73 249 1.0 4.0 0.00 0.00 0.00 77 1018.8
20180524033053 73 250 2.0 4.0 0.00 0.00 0.00 76 1018.9
20180524032954 73 250 2.0 4.0 0.00 0.00 0.00 76 1018.8
20180524032845 73 250 2.0 4.0 0.00 0.00 0.00 76 1018.8
20180524032758 73 249 2.0 4.0 0.00 0.00 0.00 76 1018.8
20180524032643 73 249 2.0 4.0 0.00 0.00 0.00 76 1018.8
20180524032553 73 249 1.0 4.0 0.00 0.00 0.00 76 1018.8
20180524032453 73 249 1.0 4.0 0.00 0.00 0.00 76 1018.8
20180524032353 73 249 1.0 4.0 0.00 0.00 0.00 76 1018.8
20180524032254 73 250 1.0 4.0 0.00 0.00 0.00 76 1018.9
20180524032046 73 250 2.0 4.0 0.00 0.00 0.00 76 1018.8
20180524031951 73 250 1.0 4.0 0.00 0.00 0.00 76 1018.8
20180524031851 73 249 0.0 4.0 0.00 0.00 0.00 76 1018.9
20180524031749 73 249 0.0 4.0 0.00 0.00 0.00 76 1018.8
20180524031704 73 249 0.0 4.0 0.00 0.00 0.00 76 1018.9
20180524031447 73 250 1.0 5.0 0.00 0.00 0.00 76 1018.8
20180524031350 73 249 1.0 5.0 0.00 0.00 0.00 76 1018.8
20180524031250 73 249 0.0 5.0 0.00 0.00 0.00 76 1018.8
20180524031144 73 249 0.0 5.0 0.00 0.00 0.00 76 1018.8
20180524031056 73 250 0.0 5.0 0.00 0.00 0.00 76 1018.8
20180524030949 73 250 1.0 5.0 0.00 0.00 0.00 76 1018.9
20180524030857 73 249 1.0 5.0 0.00 0.00 0.00 76 1018.8
20180524030757 73 250 2.0 5.0 0.00 0.00 0.00 75 1018.8
20180524030651 73 250 2.0 5.0 0.00 0.00 0.00 75 1018.8
20180524030548 74 250 2.0 4.0 0.00 0.00 0.00 75 1018.8
20180524030446 74 250 2.0 4.0 0.00 0.00 0.00 75 1018.8
20180524030346 74 249 2.0 4.0 0.00 0.00 0.00 75 1018.7
20180524030217 74 249 2.0 4.0 0.00 0.00 0.00 75 1018.7
20180524030106 74 250 2.0 4.0 0.00 0.00 0.00 75 1018.7
20180524030000 74 249 2.0 4.0 0.00 0.00 0.00 75 1018.7
20180524025903 74 249 2.0 4.0 0.00 0.00 0.00 75 1018.7
20180524025744 74 250 2.0 5.0 0.00 0.00 0.00 75 1018.7
20180524025659 74 249 2.0 5.0 0.00 0.00 0.00 75 1018.7
20180524025552 74 250 2.0 5.0 0.00 0.00 0.00 75 1018.6
20180524025451 74 250 2.0 5.0 0.00 0.00 0.00 75 1018.6
20180524025349 74 249 2.0 5.0 0.00 0.00 0.00 75 1018.6
20180524025247 74 250 2.0 5.0 0.00 0.00 0.00 75 1018.5
20180524025150 74 249 2.0 5.0 0.00 0.00 0.00 74 1018.5
20180524025046 74 250 3.0 5.0 0.00 0.00 0.00 74 1018.4
20180524025005 74 249 3.0 5.0 0.00 0.00 0.00 74 1018.5
20180524024858 74 249 3.0 5.0 0.00 0.00 0.00 74 1018.5
20180524024757 74 249 3.0 5.0 0.00 0.00 0.00 74 1018.5
20180524024655 74 250 2.0 5.0 0.00 0.00 0.00 74 1018.5
20180524024549 74 249 2.0 5.0 0.00 0.00 0.00 74 1018.4
20180524024449 74 249 2.0 5.0 0.00 0.00 0.00 74 1018.5
20180524024349 74 249 3.0 5.0 0.00 0.00 0.00 74 1018.4
20180524024248 74 249 3.0 5.0 0.00 0.00 0.00 73 1018.4
20180524024148 74 250 3.0 5.0 0.00 0.00 0.00 73 1018.4
20180524024100 74 249 2.0 4.0 0.00 0.00 0.00 73 1018.4
20180524023954 74 250 2.0 4.0 0.00 0.00 0.00 73 1018.4
20180524023855 74 249 2.0 4.0 0.00 0.00 0.00 73 1018.4
20180524023755 74 250 2.0 5.0 0.00 0.00 0.00 73 1018.3
20180524023656 75 250 3.0 5.0 0.00 0.00 0.00 73 1018.4
20180524023548 75 249 3.0 5.0 0.00 0.00 0.00 73 1018.4
20180524023449 75 250 2.0 5.0 0.00 0.00 0.00 73 1018.4
20180524023348 75 249 3.0 5.0 0.00 0.00 0.00 73 1018.4
20180524023246 75 249 2.0 5.0 0.00 0.00 0.00 73 1018.5
20180524023149 75 249 3.0 5.0 0.00 0.00 0.00 73 1018.5
20180524023101 75 250 3.0 5.0 0.00 0.00 0.00 72 1018.5
20180524023001 75 250 3.0 5.0 0.00 0.00 0.00 72 1018.5
20180524022901 75 250 3.0 5.0 0.00 0.00 0.00 72 1018.4
20180524022800 75 249 3.0 4.0 0.00 0.00 0.00 72 1018.4
20180524022651 75 250 3.0 4.0 0.00 0.00 0.00 72 1018.5
20180524022543 75 249 3.0 4.0 0.00 0.00 0.00 72 1018.3
20180524022445 75 250 2.0 4.0 0.00 0.00 0.00 72 1018.4
20180524022402 75 250 2.0 4.0 0.00 0.00 0.00 72 1018.3
20180524022301 75 249 2.0 4.0 0.00 0.00 0.00 71 1018.3
20180524022159 75 249 2.0 4.0 0.00 0.00 0.00 71 1018.3
20180524022055 75 249 2.0 4.0 0.00 0.00 0.00 71 1018.3
20180524021952 75 250 2.0 4.0 0.00 0.00 0.00 71 1018.3
20180524021850 75 249 2.0 4.0 0.00 0.00 0.00 71 1018.3
20180524021755 76 250 1.0 4.0 0.00 0.00 0.00 71 1018.3
20180524021654 76 249 1.0 4.0 0.00 0.00 0.00 71 1018.3
20180524021545 76 249 0.0 4.0 0.00 0.00 0.00 70 1018.2
20180524021446 76 249 0.0 4.0 0.00 0.00 0.00 70 1018.2
20180524021405 76 249 0.0 4.0 0.00 0.00 0.00 70 1018.2
20180524021301 76 249 1.0 4.0 0.00 0.00 0.00 70 1018.2
20180524021201 76 249 1.0 4.0 0.00 0.00 0.00 70 1018.2
20180524021058 76 249 1.0 4.0 0.00 0.00 0.00 70 1018.2
20180524020958 76 249 1.0 4.0 0.00 0.00 0.00 70 1018.2
20180524020857 76 249 2.0 6.0 0.00 0.00 0.00 70 1018.1
20180524020758 76 249 2.0 6.0 0.00 0.00 0.00 70 1018.1
20180524020656 76 249 3.0 6.0 0.00 0.00 0.00 69 1018.1
20180524020548 76 249 2.0 6.0 0.00 0.00 0.00 69 1018.1
20180524020446 76 250 2.0 6.0 0.00 0.00 0.00 69 1018.0
20180524020249 77 249 2.0 7.0 0.00 0.00 0.00 69 1018.0
20180524020147 77 249 2.0 7.0 0.00 0.00 0.00 69 1018.0
20180524020044 77 249 2.0 7.0 0.00 0.00 0.00 68 1018.0
20180524015943 77 249 3.0 7.0 0.00 0.00 0.00 68 1018.0
20180524015903 77 249 2.0 7.0 0.00 0.00 0.00 68 1018.0
20180524015747 77 250 3.0 7.0 0.00 0.00 0.00 68 1018.0
20180524015647 77 249 4.0 7.0 0.00 0.00 0.00 68 1018.0
20180524015601 77 249 4.0 7.0 0.00 0.00 0.00 68 1017.9
20180524015456 77 250 4.0 7.0 0.00 0.00 0.00 68 1017.9
20180524015356 77 250 4.0 7.0 0.00 0.00 0.00 68 1018.0
20180524015257 77 249 4.0 7.0 0.00 0.00 0.00 68 1018.0
20180524015153 77 249 4.0 8.0 0.00 0.00 0.00 68 1017.9
20180524015050 77 249 3.0 8.0 0.00 0.00 0.00 67 1017.9
20180524014949 77 249 3.0 8.0 0.00 0.00 0.00 67 1017.9
20180524014849 78 250 4.0 8.0 0.00 0.00 0.00 67 1017.9
20180524014748 78 250 5.0 8.0 0.00 0.00 0.00 67 1017.9
20180524014647 78 264 4.0 9.0 0.00 0.00 0.00 67 1017.9
20180524014600 78 281 4.0 9.0 0.00 0.00 0.00 66 1017.9
20180524014500 78 256 4.0 9.0 0.00 0.00 0.00 66 1017.9
20180524014402 78 281 5.0 9.0 0.00 0.00 0.00 66 1017.9
20180524014303 78 281 5.0 9.0 0.00 0.00 0.00 66 1017.9
20180524014158 78 279 6.0 9.0 0.00 0.00 0.00 66 1017.9
20180524014052 78 280 7.0 9.0 0.00 0.00 0.00 66 1017.9
20180524013950 78 286 7.0 9.0 0.00 0.00 0.00 66 1017.9
20180524013906 78 301 7.0 9.0 0.00 0.00 0.00 66 1017.9
20180524013743 78 283 7.0 9.0 0.00 0.00 0.00 66 1017.9
20180524013649 78 281 7.0 9.0 0.00 0.00 0.00 66 1017.9
20180524013602 78 280 7.0 9.0 0.00 0.00 0.00 66 1017.9
20180524013502 78 281 7.0 9.0 0.00 0.00 0.00 65 1017.9
20180524013344 78 252 7.0 9.0 0.00 0.00 0.00 65 1017.8
20180524013303 78 254 7.0 9.0 0.00 0.00 0.00 65 1017.8
20180524013050 79 281 7.0 10.0 0.00 0.00 0.00 65 1017.7
20180524012953 79 309 7.0 10.0 0.00 0.00 0.00 65 1017.8
20180524012855 79 281 6.0 10.0 0.00 0.00 0.00 65 1017.8
20180524012753 79 281 6.0 10.0 0.00 0.00 0.00 64 1017.8
20180524012655 79 336 6.0 10.0 0.00 0.00 0.00 64 1017.7
20180524012550 79 282 7.0 10.0 0.00 0.00 0.00 64 1017.8
20180524012449 79 282 7.0 10.0 0.00 0.00 0.00 64 1017.8
20180524012353 79 277 7.0 10.0 0.00 0.00 0.00 64 1017.7
20180524012245 79 281 6.0 10.0 0.00 0.00 0.00 64 1017.7
20180524012143 79 290 6.0 9.0 0.00 0.00 0.00 64 1017.7
20180524012057 79 281 6.0 9.0 0.00 0.00 0.00 63 1017.7
20180524011955 80 279 6.0 9.0 0.00 0.00 0.00 63 1017.7
20180524011852 80 252 6.0 9.0 0.00 0.00 0.00 63 1017.7
20180524011750 80 280 5.0 9.0 0.00 0.00 0.00 63 1017.7
20180524011655 80 281 6.0 9.0 0.00 0.00 0.00 63 1017.7
20180524011549 80 252 5.0 9.0 0.00 0.00 0.00 63 1017.7
20180524011447 80 286 5.0 9.0 0.00 0.00 0.00 63 1017.7
20180524011348 80 281 5.0 7.0 0.00 0.00 0.00 63 1017.7
20180524011243 80 302 4.0 7.0 0.00 0.00 0.00 63 1017.7
20180524011144 80 254 4.0 7.0 0.00 0.00 0.00 63 1017.6
20180524011058 80 256 4.0 8.0 0.00 0.00 0.00 62 1017.7
20180524011003 80 276 4.0 8.0 0.00 0.00 0.00 62 1017.7
20180524010903 80 248 4.0 8.0 0.00 0.00 0.00 62 1017.7
20180524010800 80 248 4.0 8.0 0.00 0.00 0.00 62 1017.7
20180524010658 80 248 4.0 8.0 0.00 0.00 0.00 62 1017.6
20180524010553 80 248 3.0 8.0 0.00 0.00 0.00 62 1017.6
20180524010449 80 248 3.0 8.0 0.00 0.00 0.00 62 1017.6
20180524010349 80 248 4.0 8.0 0.00 0.00 0.00 62 1017.6
20180524010255 80 248 4.0 8.0 0.00 0.00 0.00 61 1017.6
20180524010215 81 281 4.0 8.0 0.00 0.00 0.00 61 1017.6
20180524010054 81 252 4.0 6.0 0.00 0.00 0.00 61 1017.6